                ,  0.209,  0.306,  0.403,  0.500,  0.597,  0.694,  0.791,  0.888,  0.985,  1.082,  1.179,  1.276,  1.373,  1.470,  1.567,  1.665,  1.762,  1.859,  1.956,  2.053,  2.150,  2.247,  2.344,  2.441,  2.538,  2.635,  2.732,  2.829,  2.926,  3.023,  3.120,  3.217,  3.314,  3.411,  3.508,  3.605,  3.702,  3.799,  3.896,  3.993,  4.090,  4.187,  4.284,  4.381,  4.478,  4.575,  4.672,  4.769,  4.866,  4.964,  5.061,  5.158,  5.255,  5.352,  5.449,  5.546,  5.643,  5.740,  5.837,  5.934,  6.031,  6.128,  6.225,  6.322,  6.419,  6.516,  6.613,  6.710,  6.807,  6.904,  7.001,  7.098,  7.195,  7.292,  7.389,  7.486,  7.583,  7.680,  7.777,  7.874,  7.971,  8.068,  8.165,  8.263,  8.360,  8.457,  8.554,  8.651,  8.748,  8.845,  8.942,  9.039,  9.136,  9.233,  9.330,  9.427,  9.524,  9.621
2011/03/21 00:00,    0.8,    0.0,   -0.2,   -0.0,    0.1,   -0.2,    0.1,    0.5,    0.6,    0.4,    1.3,    1.2,    1.3,    1.5,    2.5,    3.0,    2.9,    2.7,    2.6,    2.0,    1.4,   -0.3,   -0.5,   -0.5,  999.0,   -1.6,   -1.2,   -0.3,   -0.5,   -0.5,   -0.6,   -0.7,  999.0,  999.0,  999.0,   -0.6,  999.0,  999.0,  999.0,  999.0,  999.0,  999.0,  999.0,  999.0,  999.0,   -1.9,   -2.6,   -2.3,  999.0,  999.0,  999.0,  999.0,  999.0,  999.0,  999.0,  999.0,  999.0,  999.0,  999.0,  999.0,  999.0,  999.0,  999.0,  999.0,  999.0,  999.0,  999.0,  999.0,  999.0,  999.0,  999.0,  999.0,  999.0,  999.0,  999.0,  999.0,    3.5,    3.4,  999.0,  999.0,  999.0,  999.0,  999.0,  999.0,  999.0,  999.0,  999.0,  999.0,  999.0,  999.0,  999.0,  999.0,  999.0,    4.4,  999.0,  999.0,    5.6,    5.2
2011/03/21 00:10,    0.9,    0.1,   -0.0,   -0.1,    0.2,    0.1,   -0.0,    0.3,    0.5,    0.6,    1.1,    1.0,    1.1,    1.9,    2.5,    2.7,    2.4,    2.1,    1.7,    1.5,    0.7,   -0.2,   -0.9,   -0.6,   -1.1,   -1.3,   -0.4,   -0.2,   -0.1,   -0.4,   -0.0,   -0.1,   -0.2,  999.0,   -0.2,   -0.6,  999.0,  999.0,  999.0,  999.0,  999.0,   -1.2,  999.0,  999.0,  999.0,  999.0,   -2.1,   -2.3,   -2.6,  999.0,  999.0,   -1.7,  999.0,  999.0,  999.0,  999.0,  999.0,  999.0,  999.0,  999.0,  999.0,  999.0,  999.0,  999.0,  999.0,  999.0,  999.0,   -1.8,   -1.0,   -0.2,   -0.4,   -0.1,    0.7,    0.9,    1.9,    2.0,    2.1,    2.6,    2.8,    3.3,    3.5,  999.0,  999.0,  999.0,  999.0,  999.0,  999.0,  999.0,  999.0,  999.0,  999.0,    1.4,    1.2,    1.5,    1.7,    1.4,    1.4,    2.3
2011/03/21 00:20,    1.0,    0.2,   -0.1,   -0.1,    0.2,  999.0,  999.0,    0.2,    0.3,    0.5,    0.5,    0.5,    0.6,    1.3,    2.1,    2.0,    1.8,    1.6,    1.0,    0.5,  999.0,   -1.5,   -1.1,   -1.5,   -1.4,   -0.8,   -0.4,   -0.4,   -0.3,  999.0,  999.0,    3.1,  999.0,  999.0,  999.0,  999.0,  999.0,    0.0,   -0.3,   -0.2,   -1.2,   -1.7,   -1.6,   -1.4,   -1.2,   -1.9,   -2.2,   -2.5,   -2.4,   -2.3,   -1.9,   -2.0,   -1.9,   -2.3,   -2.4,   -2.4,   -2.6,   -1.8,   -2.3,   -1.7,   -3.0,   -2.7,   -1.9,   -1.6,   -1.8,   -1.9,   -1.5,   -1.9,   -1.5,   -0.6,    0.2,    0.7,    1.2,    1.8,    2.2,    1.8,    1.6,    1.5,    2.1,    2.1,    2.4,    3.2,    3.1,    3.1,    3.4,    4.1,    3.2,    2.7,    2.8,    3.1,    2.9,    2.6,    2.3,    2.3,    2.0,    2.2,    2.0,    2.2
2011/03/21 00:30,  999.0,    1.6,    0.2,    0.8,    0.9,  999.0,  999.0,    1.7,    0.8,    2.0,    2.3,    2.1,    1.4,    2.3,    3.0,    3.0,    3.2,    2.8,    2.6,    2.7,    2.6,    2.3,    3.0,    2.1,    3.4,    3.4,    1.8,    1.5,    1.5,    1.8,    1.5,   -0.2,   -0.4,    0.3,   -1.2,   -0.4,    0.3,    0.2,    0.6,    0.6,   -0.5,   -0.5,   -1.4,   -1.0,   -1.3,   -2.0,   -2.4,   -1.9,   -1.9,   -2.2,   -2.6,   -2.9,   -3.3,   -3.7,   -3.9,   -3.8,   -3.2,   -3.0,   -2.9,   -2.8,   -3.3,   -3.6,   -3.3,   -3.1,   -3.2,   -3.3,   -2.6,   -2.2,   -2.1,   -2.1,   -2.0,   -1.9,   -2.0,   -2.1,   -2.2,   -2.1,   -2.5,   -2.7,   -2.5,   -2.4,   -1.5,   -1.5,   -1.2,   -0.7,    0.3,    0.1,    0.9,    1.6,    1.8,    1.7,    1.9,    2.4,    2.5,    2.6,    3.2,    3.1,    3.3,    3.0
2011/03/21 00:40,    4.1,    3.5,    2.4,    1.6,    1.2,    1.3,    1.2,    1.0,    0.8,    0.3,    0.0,   -0.0,    0.4,    0.8,    1.8,    2.2,    1.9,    1.7,    0.8,    1.1,    0.4,   -0.3,   -2.2,   -2.5,   -3.4,   -2.8,   -3.0,   -2.4,   -2.9,   -2.7,   -2.7,   -3.2,   -1.4,   -1.3,   -2.3,   -0.8,   -2.0,   -1.3,   -0.2,   -1.5,   -1.9,   -2.1,   -1.2,   -2.3,   -2.4,   -1.6,   -1.1,   -2.3,   -2.1,   -1.8,   -1.8,   -2.1,   -1.0,   -1.4,   -1.5,   -1.3,   -1.3,   -1.8,   -1.9,   -2.2,   -2.2,   -2.5,   -2.6,   -2.5,   -2.1,   -1.8,   -1.6,   -1.7,   -1.7,   -1.9,   -1.9,   -2.2,   -2.8,   -3.0,   -3.2,   -3.2,   -3.2,   -3.3,   -3.8,   -3.7,   -3.7,   -3.0,   -2.2,   -1.2,   -0.6,    0.3,    1.2,    1.9,    2.3,    2.3,    2.7,    3.3,    3.7,    3.8,    3.4,    3.2,    3.1,    3.2
2011/03/21 00:50,    4.2,    4.2,    2.9,    2.3,    2.5,    1.0,    1.5,    0.8,    0.6,   -0.6,   -1.5,   -2.3,   -3.6,   -3.4,   -2.3,    1.1,    3.8,    0.1,   -0.0,   -0.9,   -1.3,    0.2,   -3.9,  999.0,   -2.2,   -5.3,   -4.3,   -4.9,   -4.0,   -3.4,   -2.6,   -2.7,   -2.7,   -2.5,   -2.1,   -1.6,   -2.1,   -1.3,   -2.3,   -2.3,   -1.6,   -2.8,   -2.7,  999.0,   -1.6,   -1.3,   -1.7,   -1.6,   -0.6,   -1.1,   -1.2,   -1.4,   -1.6,   -1.6,   -0.4,   -0.7,    0.7,   -0.5,    0.7,   -0.3,    0.5,    0.3,   -0.8,   -0.9,   -1.4,   -1.5,   -1.4,   -2.1,   -2.4,   -3.3,   -3.7,   -3.5,   -3.9,   -4.6,   -4.0,   -4.6,   -4.5,   -4.5,   -5.7,   -4.8,   -3.0,   -1.0,   -1.5,   -1.7,   -0.8,   -0.2,    2.8,    0.0,    1.4,    1.7,    3.7,    1.5,    2.3,    2.9,    2.9,    1.9,    1.9,    4.1
2011/03/21 01:00,  999.0,  999.0,  999.0,  999.0,  -17.6,  -11.3,   -5.6,   -3.3,   -4.5,   -5.5,   -7.9,    2.3,   -5.2,   -2.1,   -8.8,   -0.9,   -9.1,  -10.7,   -5.0,   -1.0,   -4.7,  -12.2,  -12.9,   -8.5,   -5.9,   -3.5,   -5.2,   -9.5,   -6.9,  -14.7,  999.0,  -11.2,  -16.8,    2.0,   -4.9,  999.0,   -7.7,   -7.8,  -12.1,  -11.3,  999.0,   -5.5,  -12.8,   -2.4,   -4.7,   -3.2,   -4.4,  -10.7,   -2.4,  999.0,   -5.2,  999.0,  999.0,   -8.5,    3.0,  999.0,    2.1,   -3.6,    2.9,    0.0,    1.2,    0.0,    0.8,   -3.4,    2.0,    0.7,   -1.6,   -1.7,   -2.0,  999.0,   -5.5,   -2.5,  999.0,  999.0,    0.1,   -0.9,    1.8,    2.7,    2.7,    3.7,    4.0,    5.4,    4.7,    6.7,    5.9,    2.8,   12.8,    8.6,   -2.1,    8.6,    4.9,    6.7,    4.0,    5.4,    1.3,    3.2,    1.8,    1.4
2011/03/21 01:10,    2.8,  999.0,    2.4,  999.0,    0.9,    0.9,    0.1,   -7.4,   -4.9,   -0.1,    5.8,    5.0,   11.9,  999.0,  999.0,   -0.3,    0.4,    1.1,   -1.4,    1.2,    1.9,  999.0,  999.0,   -1.2,   -2.6,   -3.0,  999.0,  999.0,  -11.7,  999.0,  999.0,   -7.9,  999.0,   -3.7,   -5.6,  -14.3,   -6.1,   -3.6,  -10.6,  -17.1,  -18.1,  999.0,  999.0,  999.0,  999.0,    5.8,    3.6,    3.7,  999.0,    3.4,    4.5,  999.0,    3.5,    1.8,    2.9,    3.0,    3.6,  999.0,    4.2,    4.3,    6.3,    5.0,    5.6,  999.0,    7.7,  999.0,   10.0,    8.9,    9.0,  999.0,    9.7,   12.1,   11.0,  999.0,  999.0,    7.2,    6.4,    4.5,  999.0,    2.8,  999.0,    3.7,    8.5,  999.0,  999.0,  999.0,  999.0,  999.0,  999.0,  999.0,  999.0,  999.0,  999.0,  999.0,  999.0,  999.0,  999.0,  999.0
2011/03/21 01:20,    6.3,    5.4,    4.6,    5.0,    5.2,    5.4,    1.8,    2.0,    0.8,    0.5,    0.3,    0.8,    6.4,    6.5,    5.3,    5.1,    3.9,    6.2,    6.1,    7.5,   -0.6,    6.8,   -1.4,   -0.5,   -1.8,    6.3,   -5.0,   -6.6,    4.3,    3.4,    3.2,    4.5,    5.3,    1.7,   -8.1,    0.8,    0.4,   -1.3,   -4.9,   -2.8,   -0.6,   -1.4,    0.3,   -0.0,   -1.1,   -1.2,   -2.9,   -2.9,   -3.0,   -2.7,   -3.5,   -2.8,   -3.9,   -2.4,   -1.6,   -1.5,   -0.2,   -0.2,   -0.6,   -0.2,    0.1,   -0.9,   -1.2,   -1.4,   -2.3,   -1.0,   -1.6,   -1.4,   -1.4,   -2.1,   -1.7,   -2.2,   -0.4,   -1.2,   -1.0,   -1.4,   -1.2,   -0.6,   -0.4,   -0.4,    0.3,    0.5,    0.2,   -0.5,   -1.3,    0.2,    0.1,    0.1,   -0.8,   -0.1,    0.0,   -0.3,   -1.3,   -1.1,   -0.1,    0.4,    0.5,   -1.6
2011/03/21 01:30,    3.8,    3.6,    4.3,    4.2,    4.9,    5.4,    4.5,    4.9,    4.1,    4.3,    4.3,    4.9,    5.3,    5.4,    5.4,    4.9,    5.3,    5.7,    6.6,    6.9,   -6.4,  -10.3,   -9.7,  -13.3,   -9.9,  -10.4,   -7.6,    5.5,    5.7,    5.1,    6.2,    5.9,    4.9,    6.6,    6.1,    4.3,    4.2,    3.2,    3.2,    2.3,    2.9,    1.8,    1.8,    0.5,   -1.4,   -0.9,   -1.1,   -1.6,   -2.1,   -1.9,   -2.1,   -2.1,   -2.4,   -3.0,   -1.6,   -3.1,   -2.1,   -2.4,   -2.5,   -2.9,   -3.9,   -2.6,   -3.5,   -3.9,   -4.1,   -4.1,   -4.2,   -3.9,   -3.9,   -3.6,   -4.0,   -4.0,   -3.9,   -4.0,   -3.8,   -4.4,   -4.5,   -4.6,   -4.4,   -4.3,   -3.6,   -3.2,   -3.0,   -3.0,   -2.0,   -2.0,   -2.5,   -2.4,   -2.1,   -1.8,   -2.1,   -2.3,   -2.1,   -2.2,   -1.9,   -2.0,   -1.8,   -1.5
2011/03/21 01:40,    2.8,    3.7,    4.2,    4.4,    3.9,    3.7,    3.5,    3.5,    3.3,    3.9,    3.3,    3.5,    3.8,    4.1,    3.8,  999.0,  999.0,  999.0,  -27.0,  -27.4,  -27.7,  -29.1,  999.0,  999.0,  999.0,  999.0,  999.0,  999.0,  999.0,  -28.6,  -28.1,  -28.8,  -28.0,  999.0,  999.0,  -21.4,  -29.4,  -18.7,  -12.2,  -11.5,  999.0,  999.0,  999.0,    0.2,   -0.6,   -1.4,   -1.9,   -1.7,   -2.8,   -2.9,   -2.9,   -3.0,   -2.8,   -2.9,   -2.8,   -2.8,   -2.3,   -2.0,   -1.6,   -1.8,   -1.6,   -1.5,   -1.4,   -0.9,   -1.0,   -0.9,   -1.6,   -1.9,   -2.2,   -2.6,   -3.1,   -3.1,   -3.5,   -3.7,   -3.1,   -2.9,   -2.8,   -2.4,   -2.0,   -1.9,   -1.8,   -1.4,   -2.0,   -1.5,   -1.8,   -1.9,   -1.9,   -1.9,   -1.8,   -1.6,   -1.8,   -1.8,   -1.9,   -1.5,   -0.6,    0.2,    0.0,    0.1
2011/03/21 01:50,  999.0,   -7.6,   -7.4,    3.6,  999.0,    4.0,  999.0,    3.0,   -2.1,    3.1,    3.5,  999.0,    4.1,  999.0,  999.0,  999.0,  -29.7,  -29.3,  -29.2,  -29.0,  -29.3,  -29.3,  999.0,  999.0,  -14.5,  -13.6,  -14.0,  999.0,  999.0,  999.0,  -28.9,  999.0,  999.0,  -18.5,  -18.8,  -18.9,  999.0,  999.0,  999.0,  999.0,  999.0,  999.0,  999.0,  999.0,  999.0,   -1.4,   -1.8,   -1.9,   -1.7,   -1.3,   -1.2,   -1.4,   -1.2,   -0.9,   -0.9,   -1.1,   -1.2,   -1.4,   -1.7,   -2.0,   -2.4,   -3.0,   -3.7,   -4.4,   -4.8,   -5.0,   -5.1,   -5.8,   -4.8,   -4.6,   -4.3,   -3.8,   -3.5,   -3.3,   -3.1,   -2.7,   -2.5,   -1.8,   -0.9,   -0.3,   -0.2,    0.0,   -0.1,   -0.2,   -0.4,   -0.4,   -0.8,   -0.6,   -0.6,   -0.6,   -0.8,   -0.8,   -0.8,   -0.7,   -0.9,   -1.2,   -1.3,   -1.4
2011/03/21 02:00,    3.9,    5.4,    4.4,    4.4,    4.7,   -4.3,    3.2,    2.6,    2.6,    2.4,    2.8,    3.9,    4.6,    5.2,    5.2,    4.7,    5.2,    5.2,   -1.4,    4.9,    0.3,    3.5,   -0.6,    3.0,    2.8,    2.6,    3.0,    3.3,    3.4,    3.3,    3.1,    3.4,    3.5,    3.3,    2.8,    1.8,    1.2,    0.8,    0.9,    0.9,    1.0,   -0.2,    1.1,    1.8,  999.0,  999.0,   -1.5,   -1.1,   -1.4,   -1.7,   -1.7,   -1.8,   -1.5,   -1.2,   -1.2,   -1.3,   -1.0,   -0.6,   -0.7,   -1.2,   -1.8,   -2.0,   -2.7,   -3.0,   -2.7,   -2.7,   -2.6,   -2.8,   -2.8,   -2.8,   -2.5,   -2.2,   -1.9,   -1.4,   -1.1,   -1.1,   -1.0,   -0.9,   -0.7,   -0.4,   -0.0,    0.2,    0.1,    0.1,   -0.0,   -0.1,   -0.2,   -0.6,   -0.9,   -0.9,   -1.1,   -1.2,   -1.2,   -1.2,   -1.2,   -1.1,   -1.0,   -0.8
2011/03/21 02:10,    3.0,    4.7,    5.1,    5.7,    5.1,    4.3,    4.1,    4.2,    3.7,    3.4,    3.6,    4.5,    5.9,    6.5,    6.2,    6.6,    6.1,    5.8,    5.6,    5.1,    4.3,    3.2,    2.6,    2.2,    1.8,    1.4,    2.1,    1.5,    1.8,    2.7,    2.4,    2.6,    2.5,    2.1,    1.8,    2.7,    2.9,    2.4,    2.7,    2.0,    1.7,    1.2,    0.8,  999.0,  999.0,  999.0,  999.0,   -0.1,   -0.4,   -0.7,   -0.8,   -0.9,   -0.8,   -0.8,   -0.6,   -1.1,   -1.3,   -0.8,    0.1,    0.3,   -0.7,   -1.6,   -1.1,   -0.8,   -0.6,   -0.5,   -0.6,   -0.4,   -0.2,    0.1,    0.2,    0.4,    0.5,    0.3,    0.2,    0.2,    0.2,    0.3,    0.5,    0.8,    0.8,    0.6,    0.6,    0.6,    0.4,    0.3,    0.2,    0.1,   -0.2,   -0.3,   -0.3,   -0.3,   -0.2,   -0.3,   -0.3,   -0.2,   -0.3,   -0.2
2011/03/21 02:20,    4.0,    5.3,    5.2,    5.9,    4.8,    3.9,    4.1,    4.9,    4.6,    4.7,    4.4,    5.1,    5.2,    6.1,    5.9,    5.9,    5.4,    5.5,    5.6,    6.5,    5.7,    4.7,    2.3,    1.3,    0.8,    0.9,    1.3,    1.5,    2.2,    2.3,    2.5,    2.1,    1.5,    1.6,    1.7,    1.2,    0.6,    0.3,    0.4,    1.1,    1.7,    4.1,    2.1,  999.0,    3.3,    1.5,    0.5,   -0.6,    0.2,    0.0,   -0.7,   -0.8,   -0.6,   -0.4,    0.3,   -0.3,    0.4,    0.6,    0.6,    0.3,   -0.5,    0.2,    1.2,    1.7,    1.4,    1.4,    1.2,    1.1,    0.9,    1.0,    0.9,    1.1,    1.0,    0.4,    0.5,    0.9,    1.2,    1.1,    1.0,    1.1,    1.1,    0.8,    0.8,    0.8,    1.0,    1.1,    0.9,    0.5,    0.2,    0.2,    0.3,    0.2,    0.3,    0.1,   -0.1,   -0.2,   -0.1,    0.3
2011/03/21 02:30,    2.8,    3.2,    4.1,    4.4,    3.9,    4.0,    3.2,    3.2,    2.2,    2.9,    2.5,    3.7,    3.8,    4.8,    4.9,    6.5,    6.2,    6.1,    6.6,    5.9,    5.9,    5.6,    5.3,    2.8,    5.0,    3.5,    2.8,    2.5,    1.9,    3.6,    1.6,    2.0,  999.0,    2.6,  999.0,  999.0,  999.0,  999.0,  999.0,    6.4,    4.4,    6.5,  999.0,  999.0,    6.6,    5.4,    4.4,    3.4,    2.5,    2.7,    2.1,    1.9,    2.1,    1.7,    1.6,    1.2,    1.0,    0.6,    0.4,   -0.3,   -0.5,   -0.2,    0.3,    0.7,    0.7,    0.6,    0.5,    0.6,    0.5,    0.1,    0.1,    0.2,    0.3,    0.4,    0.8,    1.0,    1.0,    0.9,    1.0,    0.8,    0.8,    0.6,    0.2,    0.3,    0.2,    0.7,    0.9,    1.1,    1.2,    1.1,    1.2,    1.4,    1.4,    1.3,    1.1,    0.8,    1.0,    0.7
2011/03/21 02:40,    3.4,  999.0,    2.7,    4.1,    4.1,    4.9,    5.0,    5.1,    5.8,    6.6,    6.3,    6.2,    6.4,    6.3,    4.9,    5.8,    4.3,    3.3,    3.7,    3.6,    2.8,    2.6,    2.9,    4.5,    3.5,    1.6,    1.7,    0.6,   -0.1,   -1.0,   -2.3,   -2.7,   -2.7,   -3.3,   -3.6,  999.0,   -1.3,   -2.4,   -2.4,   -2.5,  999.0,  999.0,  999.0,   -1.2,    0.2,    0.3,   -0.5,   -0.5,   -0.7,   -0.7,   -0.1,    0.4,    0.3,    0.1,   -0.1,   -0.5,   -0.7,   -0.8,   -0.8,   -1.0,   -1.0,   -0.9,   -0.5,   -0.1,    0.2,    0.4,    0.3,    0.3,    0.4,    0.4,    0.5,    0.6,    0.6,    0.8,    0.5,    0.4,    0.2,    0.3,    0.6,    0.7,    0.7,    0.8,    0.6,    0.6,    0.5,    0.6,    0.8,    0.9,    1.3,    1.7,    1.8,    2.0,    1.8,    1.5,    1.5,    1.6,    1.3,    0.9
2011/03/21 02:50,    1.5,    2.1,    1.3,    2.3,    3.7,    4.2,    2.8,    4.0,    3.4,    3.6,    2.5,    2.7,    2.8,    2.9,    2.8,    2.9,    1.3,    0.1,    0.6,    0.9,    1.3,    1.8,    2.7,    2.9,    3.3,    3.6,    2.9,    3.3,    3.2,    1.1,    1.0,    2.0,    1.5,    1.6,    3.6,    2.9,    2.1,    0.0,    1.3,   -0.0,  999.0,    3.6,  999.0,    0.7,   -1.5,    0.1,   -1.1,   -0.9,   -0.6,   -1.0,   -0.5,   -0.2,   -0.5,   -0.5,   -0.5,   -0.4,   -0.4,    0.2,    0.4,    0.9,    1.0,    1.0,    1.7,    1.6,    1.3,    1.0,    0.8,    0.7,    0.8,    0.5,    0.4,    0.5,    0.4,    0.4,    0.5,    0.4,    0.6,    0.6,    0.8,    0.9,    1.2,    0.9,    0.7,    0.6,    0.7,    0.8,    0.9,    1.2,    1.3,    1.4,    1.6,    1.6,    1.3,    1.4,    1.5,    1.6,    1.7,    1.5
2011/03/21 03:00,    2.3,    2.2,  999.0,    1.3,    2.0,    3.3,    2.7,    3.1,    3.7,    4.0,    2.4,    2.3,    2.8,  999.0,    2.7,  999.0,  999.0,    3.1,    3.9,    3.4,    3.4,    3.2,  999.0,    3.5,   -1.4,    3.5,    2.9,    2.7,    1.5,    1.4,    1.1,   -2.5,    1.1,    1.4,    2.3,    1.2,  999.0,  999.0,  999.0,  999.0,  999.0,    0.3,    1.2,   -0.1,  999.0,    1.0,    0.1,    0.0,    0.8,    1.6,    1.9,    1.7,    1.2,    1.0,    0.7,    0.9,    1.0,    1.0,    1.0,    0.9,    1.0,    0.9,    1.0,    0.9,    0.9,    0.9,    1.0,    0.9,    1.1,    1.3,    1.5,    1.4,    1.0,    1.3,    1.2,    1.0,    0.8,    1.0,    1.2,    1.3,    1.1,    1.3,    1.1,    1.1,    0.9,    0.9,    0.8,    0.7,    0.5,    0.9,    1.0,    0.8,    0.8,    0.6,    0.8,    0.7,    0.8,    0.9
2011/03/21 03:10,    2.2,    1.9,    1.5,    2.1,    2.5,    2.7,    2.4,    2.0,    1.1,    0.5,    0.5,    0.6,    1.8,  999.0,  999.0,    2.4,    2.9,  999.0,    1.7,    2.1,  999.0,    1.4,    1.1,   -4.1,    0.5,  999.0,  999.0,    0.8,    1.1,  999.0,  999.0,  999.0,  999.0,  999.0,  999.0,  999.0,  999.0,  999.0,  999.0,  999.0,  999.0,    2.5,    3.0,    1.8,    2.1,    1.8,    1.2,    1.6,    1.5,    1.1,    0.4,   -0.0,   -0.5,   -0.8,   -0.7,   -0.4,   -0.1,    0.2,    0.5,    0.6,    0.7,    0.6,    0.7,    0.6,    0.7,    0.7,    0.7,    0.6,    0.6,    0.8,    0.7,    0.7,    0.7,    0.7,    0.8,    0.8,    0.9,    1.0,    1.2,    1.4,    1.4,    1.4,    1.1,    0.8,    0.5,    0.3,    0.5,    0.4,    0.4,    0.7,    0.8,    0.7,    0.8,    0.3,    0.0,    0.0,   -0.2,   -0.1
2011/03/21 03:20,    1.8,    1.8,    2.0,    2.5,    2.2,    2.4,    1.8,    1.0,    1.1,    0.4,    1.2,    1.6,    1.4,    2.2,    2.2,  999.0,    2.4,    2.0,    3.1,    2.7,    2.3,    2.2,    1.9,    2.0,    2.7,    3.1,    3.4,    3.2,    3.2,    2.7,    2.9,  999.0,  999.0,  999.0,  999.0,  999.0,  999.0,  999.0,  999.0,  999.0,  999.0,  999.0,  999.0,   -1.4,   -2.1,    1.1,    3.7,    4.4,    4.4,    4.5,    7.7,    4.9,    4.2,    3.1,    2.7,    3.0,    2.9,    2.4,    2.4,    2.3,    2.2,    2.0,    1.8,    1.8,    1.7,    1.6,    1.6,    1.3,    0.9,    0.6,    0.2,    0.1,    0.2,   -0.0,    0.1,    0.1,    0.0,   -0.1,   -0.2,   -0.1,    0.1,    0.2,    0.3,    0.2,    0.3,    0.4,    0.4,    0.6,    0.4,    0.4,    0.3,    0.3,    0.4,    0.3,    0.6,    0.8,    0.9,    1.0
2011/03/21 03:30,    2.8,    2.7,    2.4,    2.4,    2.0,    1.4,    1.0,    1.2,    1.6,    1.8,    2.1,    2.8,    3.2,    3.1,    3.1,    3.5,    3.5,    3.5,    3.3,    2.6,    2.4,    2.0,    1.7,    2.0,    1.7,    2.0,    2.3,    2.6,    2.5,  999.0,  999.0,  999.0,    5.1,  999.0,  999.0,  999.0,  999.0,  999.0,  999.0,  999.0,  999.0,  999.0,  999.0,  999.0,  999.0,    5.5,    4.4,    5.4,    6.0,    5.6,    5.5,    5.3,    4.5,    4.2,    4.0,    3.6,    3.6,    3.0,    2.8,    2.4,    2.1,    1.8,    1.3,    1.2,    0.9,    0.6,    0.5,    0.6,    0.7,    0.8,    1.0,    1.2,    1.1,    1.3,    1.3,    1.3,    1.4,    1.5,    1.4,    1.4,    1.1,    0.8,    0.5,    0.4,    0.4,    0.5,    0.9,    1.2,    1.3,    1.0,    0.6,    0.4,    0.4,    0.6,    0.9,    1.0,    1.0,    0.9
2011/03/21 03:40,    2.8,  999.0,  999.0,  999.0,    2.3,    1.8,    2.9,    3.8,    3.7,    3.6,    4.1,    4.1,    3.8,    3.6,    4.4,    4.6,    4.9,    4.3,    3.6,    3.7,    2.8,    2.4,    2.3,    1.8,    1.7,    1.9,    0.8,    1.4,    2.6,    3.1,    4.1,    3.7,    3.6,    3.5,    4.3,    4.2,    3.9,    3.9,    3.2,    2.4,    2.2,    2.4,    3.5,    2.4,    1.9,    1.9,    2.3,    1.2,    0.8,    1.0,    1.2,    1.5,    1.7,    1.9,    1.9,    1.9,    1.5,    1.4,    1.2,    0.9,    0.8,    0.6,    0.6,    0.5,    0.4,    0.5,    0.7,    1.0,    1.1,    1.2,    1.3,    1.4,    1.4,    1.5,    1.4,    1.5,    1.4,    1.4,    1.5,    1.2,    1.3,    0.8,    0.5,    0.5,    0.4,    0.2,    0.1,    0.0,   -0.1,   -0.5,   -0.7,   -0.8,   -0.7,   -0.4,   -0.1,    0.1,    0.4,    0.9
2011/03/21 03:50,    3.9,    3.9,    3.9,    3.2,    2.8,    3.0,    4.2,    4.3,    4.5,    4.3,    4.4,    3.8,    4.3,    4.5,    4.9,    4.9,    4.4,    4.1,    3.7,    3.2,    3.0,    3.0,    2.9,    2.7,    3.0,    3.0,    2.5,    3.5,    3.1,    4.1,    5.1,    5.2,    5.6,    5.8,    6.0,    5.5,    6.0,    5.3,    4.3,    4.6,    4.0,    4.0,    5.6,  999.0,  999.0,  999.0,  999.0,    3.5,    3.1,    2.8,    2.8,    2.6,    2.4,    1.9,    1.4,    0.7,   -0.2,   -0.5,   -0.5,   -0.5,   -0.2,   -0.2,    0.1,    0.4,    0.5,    0.7,    1.0,    1.3,    1.4,    1.4,    1.2,    1.1,    1.0,    1.0,    1.0,    0.9,    0.8,    0.9,    0.8,    0.6,    0.4,    0.3,    0.1,   -0.0,   -0.4,   -0.4,   -0.5,   -0.6,   -0.7,   -0.5,   -0.3,   -0.0,    0.1,    0.2,    0.3,    0.6,    0.9,    1.1
2011/03/21 04:00,    3.5,    3.7,    3.7,    2.8,    2.7,    3.0,    3.6,    4.0,    3.8,    3.2,    3.7,    3.8,    3.8,    3.7,    3.7,    3.1,    2.5,    2.8,    2.8,    2.9,    2.7,    2.8,    3.3,    3.4,    3.0,    2.8,    2.7,    2.4,    2.9,    3.0,    3.2,    3.2,    3.7,    3.7,    4.0,    3.3,    3.7,    4.3,    3.9,    4.0,  999.0,    5.3,    6.0,    6.3,  999.0,  999.0,    5.6,    5.3,    4.7,    4.2,    3.6,    3.0,    2.3,    1.7,    1.2,    1.1,    0.9,    0.4,    0.1,    0.3,    0.4,    0.4,    0.5,    0.5,    0.5,    0.2,   -0.1,   -0.0,   -0.2,   -0.2,   -0.1,    0.0,   -0.0,   -0.0,   -0.0,    0.2,    0.1,    0.1,    0.3,    0.6,    0.3,    0.0,   -0.2,   -0.3,   -0.4,   -0.5,   -0.4,   -0.4,   -0.5,   -0.4,   -0.1,    0.2,    0.4,    0.5,    0.5,    0.5,    0.6,    0.8
2011/03/21 04:10,    3.3,    3.8,    2.9,    3.1,    2.7,   -1.1,    3.8,    4.0,    3.3,    3.2,   -0.5,    3.6,    3.5,    2.9,    2.6,    3.7,    3.2,    2.3,    2.1,    2.4,    2.5,    2.9,    2.9,    2.6,    1.9,    2.5,    2.7,   -0.2,   -0.8,    2.0,    2.1,    1.8,    2.5,    3.2,  999.0,  999.0,  999.0,  999.0,  999.0,  999.0,  999.0,  999.0,  999.0,  999.0,  999.0,  999.0,    5.5,    4.8,    3.9,    2.8,    1.7,    1.2,    0.7,    0.6,    0.4,    0.1,   -0.5,   -0.9,   -1.3,   -1.0,   -0.9,   -0.6,   -0.7,   -0.8,   -0.6,   -0.5,   -0.5,   -0.6,   -0.5,   -0.6,   -0.7,   -0.6,   -0.6,   -0.5,   -0.4,   -0.5,   -0.4,   -0.3,   -0.4,   -0.3,   -0.5,   -0.5,   -0.7,   -0.7,   -0.6,   -0.5,   -0.6,   -0.5,   -0.5,   -0.5,   -0.7,   -0.8,   -0.9,   -0.9,   -0.6,   -0.5,   -0.5,   -0.2
2011/03/21 04:20,    3.0,    3.3,  999.0,  999.0,    3.1,    3.7,    4.9,    0.7,    0.0,    4.2,   -1.1,   -1.3,    3.6,    3.5,    3.8,    4.2,    3.7,    3.1,    2.8,    3.0,    3.9,    4.0,    3.5,    3.9,    4.0,    4.3,    3.6,    3.6,    3.3,    2.4,    2.1,    2.5,    3.5,    3.8,    4.9,    4.4,    4.7,    5.1,    4.0,    4.5,  999.0,  999.0,    5.2,    5.5,    4.6,    3.4,    2.5,    1.7,    1.0,    0.7,    0.2,   -0.1,   -0.9,   -1.3,   -1.5,   -1.8,   -2.1,   -2.4,   -2.0,   -0.9,    0.1,    0.7,    1.1,    1.1,    1.1,    0.9,    0.8,    0.9,    0.8,    0.5,    0.3,   -0.1,   -0.4,   -0.7,   -0.8,   -0.8,   -0.8,   -0.8,   -0.7,   -0.7,   -0.3,   -0.2,   -0.1,    0.0,    0.1,    0.1,    0.1,    0.1,    0.2,    0.3,    0.6,    0.7,    0.6,    0.7,    0.7,    0.7,    0.6,    0.3
2011/03/21 04:30,    2.7,    2.1,    2.1,    2.3,    2.4,    3.5,    4.6,    5.0,    4.8,    4.5,    4.2,    4.2,    5.0,    6.0,    5.6,    5.6,    5.0,    4.4,    4.7,    5.1,    5.1,    5.3,    5.4,    5.3,    5.5,    5.6,    4.4,    4.1,    3.9,    2.9,    3.4,    4.0,    4.1,    3.8,    3.8,    4.1,    4.6,    4.4,    4.7,    5.0,    5.1,    5.0,    5.6,    6.4,  999.0,  999.0,    2.8,    2.0,    1.9,    1.4,    0.4,    0.2,   -0.1,    0.1,    0.3,    0.6,    1.3,    2.0,    2.7,    3.1,    3.3,    3.5,    3.5,    3.5,    3.0,    2.7,    2.2,    2.0,    1.9,    1.9,    1.9,    1.8,    1.5,    1.1,    0.6,    0.3,    0.3,    0.3,    0.3,    0.6,    1.0,    1.3,    1.4,    1.4,    1.4,    1.3,    1.4,    1.5,    1.5,    1.6,    1.7,    1.7,    1.8,    1.9,    1.6,    1.6,    1.4,    1.2
2011/03/21 04:40,    2.5,    2.2,    2.1,    2.2,    2.5,    3.2,    4.0,    4.3,    4.3,    4.4,    4.7,    5.3,    5.7,    6.4,    5.8,    5.4,    4.4,    3.8,    3.8,    4.6,    4.9,    4.8,    5.1,    4.8,    3.7,    3.0,    3.1,    3.8,    4.1,    5.2,    5.4,    4.8,    5.2,    5.9,    5.9,    5.7,    5.8,    5.7,    4.6,    4.8,    5.7,    5.2,    5.8,    6.3,    6.2,    6.7,    6.9,    6.2,    6.2,    5.9,    5.2,    5.4,    5.2,    4.4,    4.4,    4.1,    4.1,    4.4,    4.6,    4.7,    4.9,    4.6,    4.0,    3.6,    3.0,    2.1,    1.6,    1.3,    1.2,    1.0,    0.9,    0.9,    0.9,    1.0,    0.8,    0.8,    0.9,    1.2,    2.0,    2.5,    3.0,    3.0,    3.2,    3.1,    3.2,    3.0,    3.1,    3.2,    3.2,    3.2,    2.9,    2.7,    2.5,    2.2,    2.0,    1.9,    1.8,    1.8
2011/03/21 04:50,    2.3,    1.7,    1.7,    1.8,    1.9,    2.8,    3.5,    3.9,    4.0,    3.9,    4.0,    4.6,    5.1,    5.1,    5.4,    5.0,    4.2,    4.0,    4.4,    3.7,    2.8,    1.9,    1.6,    1.4,    1.4,    1.2,    1.4,    2.0,    2.8,    4.0,    4.2,    5.0,    5.3,    4.9,    5.3,    5.6,    6.1,    6.1,    5.5,    4.9,    5.2,    5.3,    5.2,    6.1,    5.5,    5.4,  999.0,    4.6,    4.6,    3.8,    3.5,    3.3,    3.1,    3.0,    3.1,    2.8,    3.3,    3.3,    4.0,    4.3,    3.1,    2.3,    2.1,    1.9,    2.3,    2.2,    1.6,    1.3,    1.1,    0.8,    0.7,    0.9,    1.6,    1.6,    1.6,    1.8,    2.2,    2.5,    3.5,    3.4,    3.1,    3.0,    3.2,    2.9,  999.0,  999.0,  999.0,  999.0,  999.0,  999.0,  999.0,  999.0,  999.0,    1.0,    1.2,  999.0,  999.0,    1.8
2011/03/21 05:00,    1.7,    1.2,    2.0,    1.7,    2.6,    3.4,    4.1,    4.7,    5.3,    5.4,    5.9,    6.5,    7.2,    7.2,    7.0,    7.1,    5.4,    4.9,    4.9,    4.7,    3.6,    3.1,    2.1,    1.4,    1.2,    1.8,    2.6,    2.7,    3.0,    2.9,    3.1,    4.4,    4.8,    4.8,    4.4,    4.3,    4.3,    4.2,    4.9,    5.7,    6.1,    6.0,    5.9,    5.2,    4.5,    3.3,    2.8,    2.4,    1.7,    1.4,    1.4,    1.4,    1.5,    1.2,    1.4,    1.5,    1.6,    1.3,    1.3,    1.2,    1.1,    1.0,    1.2,    1.5,    2.1,  999.0,  999.0,  999.0,    1.8,    1.4,    0.8,    0.8,    0.8,    0.9,    1.3,    1.7,    1.8,    1.3,    1.7,    1.6,    1.4,    1.3,    1.2,    1.0,    1.1,    1.0,    0.9,    0.8,    0.7,    0.6,    0.7,    0.9,    1.0,    1.2,    1.1,    0.7,    0.4,    0.4
2011/03/21 05:10,  999.0,    0.9,    0.4,  999.0,  999.0,  999.0,  999.0,    2.4,    3.5,    4.3,    6.2,    6.4,    6.6,    6.6,    6.4,    5.7,    5.5,    5.2,    4.9,    4.4,    4.2,    3.2,  999.0,  999.0,  999.0,  999.0,  999.0,  999.0,  999.0,  999.0,  999.0,  999.0,  999.0,  999.0,  999.0,  999.0,    0.7,    0.3,   -0.9,   -0.5,    0.6,    0.1,    0.5,    0.5,   -0.8,    1.4,    1.4,    1.5,    1.6,    1.9,    2.1,    2.3,    2.3,    2.4,    2.1,    1.9,    2.4,    2.3,    1.6,    1.7,    1.6,    1.9,    2.2,    2.3,    2.6,    2.4,    2.1,    2.1,    2.2,    2.2,    1.6,    0.7,    0.1,    0.2,   -0.1,   -0.2,   -0.1,    0.0,    0.2,    0.3,    0.7,    0.5,    0.5,    0.8,    0.8,    0.7,    0.9,    1.1,    1.5,    1.3,    1.2,    1.3,    1.4,  999.0,  999.0,  999.0,  999.0,  999.0
2011/03/21 05:20,    1.3,    0.4,    0.1,    0.1,    2.7,  999.0,  999.0,    0.7,    2.2,    4.8,    4.8,    5.7,    6.6,    6.4,    6.1,    5.6,    5.8,    5.5,    4.7,  999.0,    4.7,    4.6,    4.3,    4.0,    4.3,    4.1,    3.7,    3.1,    2.8,    2.4,    2.9,    3.4,    2.5,    1.5,    0.7,    0.6,    0.4,    0.8,    1.3,    1.7,    1.8,    1.5,    1.9,    2.3,    2.1,    2.1,    1.7,    2.0,    2.1,    2.4,    2.3,    2.3,    2.4,    2.6,    2.7,    2.5,    2.4,    2.5,    2.7,    2.7,    2.6,    2.7,    2.5,    2.4,    2.1,    1.8,    1.7,    1.5,    1.5,    1.6,    1.7,    1.3,    0.7,    0.5,    0.5,    0.4,    0.4,    0.4,    0.1,    0.0,    0.2,    0.2,    0.2,    0.5,    0.7,    1.0,    1.0,    1.3,    1.3,    1.3,  999.0,  999.0,  999.0,  999.0,  999.0,  999.0,  999.0,  999.0
2011/03/21 05:30,    1.7,    2.1,    1.7,    1.7,    1.9,    2.7,    2.2,    3.2,    3.5,    3.9,    4.2,    5.2,    5.7,    5.6,    5.5,    4.9,    4.9,    4.9,    4.4,    3.9,    4.0,    3.7,    4.5,    5.2,    5.0,    3.5,    2.8,    2.3,    1.9,    2.3,    2.7,    2.5,    1.7,    1.4,    0.9,    1.2,    1.8,    2.7,    3.1,    2.9,    2.9,    2.9,    3.6,    3.6,    3.7,  999.0,    4.1,    3.7,    3.9,    4.0,    3.8,    3.5,    3.4,    2.8,    2.1,    1.6,    1.4,    1.4,    1.5,    1.8,    2.0,    2.0,    1.7,    1.6,    1.5,    1.7,    2.0,    1.9,    1.8,    1.5,    1.0,    0.9,    0.9,    0.8,    0.7,    0.6,    0.5,    0.7,    1.0,    1.4,    1.9,    2.0,    2.0,    1.9,  999.0,  999.0,  999.0,  999.0,  999.0,  999.0,  999.0,  999.0,  999.0,  999.0,  999.0,  999.0,  999.0,  999.0
2011/03/21 05:40,    1.4,    1.2,    0.3,    0.6,    1.4,    1.3,    2.1,    2.7,    2.7,    3.5,    4.8,    5.6,    6.1,    6.3,    5.7,    5.0,    4.5,    4.3,    3.8,    3.4,    3.3,    4.2,    4.6,    4.4,    3.2,    1.6,    1.7,    2.2,    2.4,    1.8,    1.5,    1.0,    0.6,    0.3,    0.4,    0.5,    0.8,    1.5,    2.2,    2.5,    2.8,    3.1,    3.0,    3.0,    2.8,    3.1,    3.3,    3.3,    3.4,    3.1,    2.9,    2.8,    2.8,    2.6,    2.5,    2.2,    2.4,    2.2,    2.3,    2.4,    2.3,    2.3,    2.6,    2.9,    3.1,    3.2,    3.1,    2.8,    2.6,    2.4,    2.2,    2.1,    2.0,    2.0,    2.0,    2.1,    2.5,    2.9,    3.2,    3.6,    3.5,    2.9,    2.6,    2.3,    1.8,    1.2,  999.0,    1.6,  999.0,  999.0,  999.0,  999.0,  999.0,  999.0,  999.0,  999.0,  999.0,  999.0
2011/03/21 05:50,    2.0,    1.7,    1.0,    1.0,    1.6,    1.5,    1.5,    2.7,    3.2,    4.1,    4.9,    5.6,    5.5,    5.3,    5.4,    5.1,    4.7,    3.8,    3.3,    3.4,    3.2,    3.7,    4.1,    3.2,    2.5,    2.0,    1.9,    2.4,    2.0,    1.1,    1.6,    1.7,    2.0,    1.8,    1.7,    1.6,    1.4,    1.6,    2.5,    3.4,    3.9,    4.1,    3.9,    3.7,    3.6,    3.8,  999.0,    3.7,    4.1,    3.9,    3.7,    3.7,    3.8,    3.6,    3.4,    3.3,    3.5,    3.4,    3.4,    3.3,    3.3,    3.5,    3.4,    3.3,    3.1,    3.0,    2.8,    2.7,    2.7,    2.9,    2.8,    2.9,    3.0,    3.3,    3.4,    3.5,    3.6,    3.7,    3.5,    3.3,    2.6,    2.2,    1.5,    1.4,    1.1,    1.3,  999.0,  999.0,  999.0,  999.0,  999.0,  999.0,  999.0,  999.0,  999.0,  999.0,  999.0,  999.0
2011/03/21 06:00,    1.2,    0.6,    0.6,    1.1,    1.4,    1.4,    0.9,    1.6,    3.0,    4.0,    5.0,    4.9,    4.4,    4.4,    4.4,    4.3,    4.4,    3.8,    3.0,    2.9,    2.5,    3.2,    2.8,    2.4,    1.9,    0.7,    0.8,    1.0,    0.9,    1.0,    1.2,    2.1,    2.1,    2.3,    1.9,    1.9,    1.6,    1.6,    1.9,    2.5,    2.7,    2.4,    2.6,    2.8,    3.6,    4.2,    4.1,    4.4,    4.6,    5.0,    4.7,    4.4,    4.5,    4.4,    4.2,    4.0,    3.8,    3.7,    3.5,    3.3,    3.3,    3.1,    3.0,    2.9,    2.9,    3.0,    3.1,    3.2,    3.3,    3.3,    3.6,    3.7,    3.5,    3.4,    3.1,    3.0,    2.9,    2.7,    2.6,    2.7,    2.5,    2.4,    2.2,    2.0,    1.8,    1.4,    1.1,    1.2,  999.0,  999.0,  999.0,  999.0,  999.0,  999.0,  999.0,  999.0,  999.0,  999.0
2011/03/21 06:10,   -0.0,    0.2,    0.7,    1.3,    1.4,    1.1,    1.4,    2.1,    3.4,    4.3,    4.7,    4.1,    3.8,    4.4,    4.3,    4.4,    4.4,    4.5,    3.7,    3.2,    3.2,    3.8,    3.7,    2.6,    1.7,    1.1,    1.0,    1.2,    1.1,    1.4,    2.3,    2.5,    2.1,    2.2,    1.8,    1.6,    1.8,    1.7,    2.0,    2.1,    2.4,    2.4,    2.1,    2.6,    3.5,    4.0,    4.8,    5.5,    5.4,    5.2,    4.6,    4.3,    4.2,    4.2,    4.1,    3.8,    3.7,    3.6,    3.5,    3.4,    3.4,    3.4,    3.3,    3.4,    3.4,    3.3,    3.3,    3.1,    3.0,    2.8,    2.7,    2.5,    2.3,    2.1,    2.1,    1.9,    1.7,    1.6,    1.6,    1.6,    1.3,    1.1,    1.0,    1.1,    0.8,    1.2,    1.0,  999.0,  999.0,  999.0,  999.0,  999.0,  999.0,  999.0,  999.0,  999.0,  999.0,  999.0
2011/03/21 06:20,   -0.3,    0.7,    1.2,    1.2,    1.2,    1.4,    2.2,    3.7,    4.5,    5.1,    4.9,    4.1,    4.4,    4.5,    3.9,    4.1,    4.3,    4.3,    3.8,    3.2,    3.3,    2.9,    2.0,    0.8,    0.1,    0.6,    0.5,    0.4,    0.4,    1.1,    1.8,    1.9,    1.5,    1.3,    1.3,    1.6,    1.7,    2.1,    1.7,    1.9,    2.0,    2.3,    2.5,    2.7,    2.7,  999.0,  999.0,    4.7,    3.8,    3.5,    3.3,    3.2,    3.2,    3.6,    3.8,    4.1,    4.1,    4.1,    4.0,    4.0,    4.0,    4.0,    4.1,    3.9,    3.7,    3.5,    3.2,    2.8,    2.3,    2.1,    2.1,    1.8,    1.8,    1.5,    1.6,    1.6,    1.4,    1.4,    1.5,    1.3,    1.2,  999.0,  999.0,  999.0,  999.0,  999.0,  999.0,  999.0,  999.0,  999.0,  999.0,  999.0,  999.0,  999.0,  999.0,  999.0,  999.0,  999.0
2011/03/21 06:30,   -0.4,    1.5,    1.3,    0.8,    0.7,    1.6,    2.6,    3.7,    4.3,    4.5,    3.9,    3.2,    3.3,    2.8,    3.9,    4.2,    4.2,    4.2,    3.8,    3.1,    3.3,    3.0,    1.6,   -0.4,   -0.4,    0.2,    0.4,    0.5,    1.1,    1.9,    1.9,    1.9,    1.4,    1.3,    1.8,    2.0,    2.1,    1.8,    2.0,    1.6,    1.6,    1.5,    1.1,    0.3,    0.6,    1.2,  999.0,  999.0,    1.7,    2.0,    2.1,    2.3,    2.2,    2.2,    2.6,    3.0,    3.2,    3.2,    3.1,    2.9,    2.7,    2.7,    2.7,    2.8,    2.9,    3.0,    2.9,    2.8,    2.7,    2.5,    2.5,    2.3,    2.1,    1.8,    1.5,  999.0,  999.0,  999.0,  999.0,  999.0,  999.0,  999.0,  999.0,  999.0,  999.0,  999.0,  999.0,  999.0,  999.0,  999.0,  999.0,  999.0,  999.0,  999.0,  999.0,  999.0,  999.0,  999.0
2011/03/21 06:40,   -0.0,   -0.0,    0.9,    0.4,    0.9,    0.5,    1.6,    2.1,    3.3,    3.6,    3.0,    2.7,    2.9,    2.7,    3.2,    3.3,    3.4,    3.3,    2.6,    2.4,    2.3,    1.8,    0.5,   -1.7,   -0.9,   -0.8,   -0.4,    0.6,    1.0,    1.4,    1.0,    0.5,    0.6,    0.9,    1.9,    2.1,    2.3,    2.3,    2.7,    2.9,    3.1,    2.2,    1.8,    2.2,    2.5,    3.0,    3.5,    4.1,    2.9,    3.1,    3.5,    3.5,    3.5,    3.5,    3.6,    3.5,    3.3,    2.5,    2.5,    2.6,    2.6,    2.0,    2.1,    2.0,    2.5,    2.9,    3.0,    2.8,    2.6,    2.3,    2.1,    2.0,    1.7,  999.0,  999.0,  999.0,  999.0,  999.0,  999.0,  999.0,  999.0,  999.0,  999.0,  999.0,  999.0,  999.0,  999.0,  999.0,  999.0,  999.0,  999.0,  999.0,  999.0,  999.0,  999.0,  999.0,  999.0,  999.0
2011/03/21 06:50,  999.0,  999.0,  999.0,  999.0,  999.0,  999.0,  999.0,  999.0,  999.0,  999.0,  999.0,    4.1,    3.8,    4.2,    4.0,    4.2,    4.2,    3.9,    3.6,    3.0,    2.3,  999.0,    0.5,    0.2,    0.1,   -0.4,    0.3,    1.1,    1.0,    1.2,    1.3,    1.3,    1.5,    2.4,    3.0,    3.3,    3.3,    3.1,    4.2,  999.0,  999.0,  999.0,  999.0,    5.4,    6.0,    5.0,    5.2,    5.7,    4.7,    4.1,    3.9,    3.9,    4.2,    3.9,    3.9,    4.0,    4.1,    3.2,    2.4,    2.2,    2.1,    1.9,    1.6,    1.7,    2.6,    2.9,    2.3,    2.0,    1.8,    1.6,    1.4,    1.4,    1.5,    0.9,    1.4,  999.0,  999.0,  999.0,  999.0,  999.0,  999.0,  999.0,  999.0,  999.0,  999.0,  999.0,  999.0,  999.0,  999.0,  999.0,  999.0,  999.0,  999.0,  999.0,  999.0,  999.0,  999.0,  999.0
2011/03/21 07:00,   -0.6,   -0.1,    0.0,    0.2,  999.0,    0.0,    0.2,  999.0,    0.6,  999.0,    3.0,    2.8,    3.1,    3.6,    4.3,    4.4,    4.2,    3.9,    3.8,    3.2,    3.2,    1.9,    1.1,    0.3,   -0.6,   -1.0,    0.2,    0.9,    0.6,    0.6,  999.0,  999.0,  999.0,  999.0,  999.0,  999.0,  999.0,  999.0,  999.0,  999.0,  999.0,  999.0,  999.0,  999.0,  999.0,  999.0,  999.0,  999.0,  999.0,  999.0,  999.0,  999.0,  999.0,  999.0,  999.0,  999.0,  999.0,  999.0,  999.0,  999.0,  999.0,  999.0,  999.0,  999.0,  999.0,  999.0,  999.0,  999.0,  999.0,  999.0,  999.0,    1.6,    2.4,    2.4,    2.6,  999.0,  999.0,  999.0,  999.0,  999.0,  999.0,  999.0,  999.0,  999.0,  999.0,  999.0,  999.0,  999.0,  999.0,  999.0,  999.0,  999.0,  999.0,  999.0,  999.0,  999.0,  999.0,  999.0
2011/03/21 07:10,   -0.1,   -0.2,    0.1,    0.6,    1.0,    0.1,  999.0,    2.2,    1.5,    3.2,    3.1,    2.6,    3.1,    3.0,    3.9,    4.3,    3.9,    3.7,    3.6,    3.1,    3.0,    2.2,    1.5,    0.6,   -0.6,  999.0,    0.2,    0.9,    0.9,    1.0,  999.0,    1.5,    1.8,  999.0,  999.0,  999.0,  999.0,  999.0,  999.0,  999.0,  999.0,  999.0,  999.0,  999.0,  999.0,  999.0,  999.0,  999.0,  999.0,  999.0,  999.0,  999.0,    5.2,  999.0,    4.9,    4.9,    4.9,    4.8,    4.8,    4.6,    4.4,    4.3,  999.0,  999.0,  999.0,    2.9,  999.0,    3.1,    3.2,    3.2,    3.1,    3.4,    3.1,    3.1,    2.8,    2.7,    2.3,    2.4,  999.0,  999.0,  999.0,  999.0,  999.0,  999.0,  999.0,  999.0,  999.0,  999.0,  999.0,  999.0,  999.0,  999.0,  999.0,  999.0,  999.0,  999.0,  999.0,  999.0
2011/03/21 07:20,  999.0,   -0.4,   -0.1,    0.7,    0.9,   -0.0,    0.2,    2.3,    2.0,    2.4,    2.0,    2.5,    2.8,  999.0,    3.6,    3.9,    3.6,    3.3,  999.0,  999.0,    2.7,    2.6,    1.3,    0.4,   -0.4,   -0.6,    0.3,    0.7,    0.8,    1.1,  999.0,  999.0,  999.0,  999.0,  999.0,  999.0,  999.0,  999.0,  999.0,  999.0,  999.0,  999.0,  999.0,  999.0,  999.0,  999.0,  999.0,  999.0,  999.0,  999.0,  999.0,  999.0,  999.0,  999.0,  999.0,  999.0,    3.8,    4.4,    4.8,    4.6,    4.3,    4.0,    4.1,    4.0,    3.6,    2.8,    3.0,  999.0,    2.6,  999.0,    3.3,    2.9,    3.0,    2.6,    2.4,    2.4,    2.2,    2.1,    2.3,    2.8,  999.0,    2.5,  999.0,  999.0,  999.0,  999.0,  999.0,  999.0,  999.0,  999.0,  999.0,  999.0,  999.0,  999.0,  999.0,  999.0,  999.0,  999.0
2011/03/21 07:30,   -0.9,    0.2,    0.4,    0.8,    1.0,    0.5,  999.0,    2.5,    2.1,    2.0,    2.0,    2.2,    2.7,    2.8,    3.7,    4.1,    3.5,    2.6,    2.5,    3.1,    2.7,    2.9,    1.8,    0.4,  999.0,   -0.0,   -0.2,    0.2,    0.2,    0.4,  999.0,    1.0,  999.0,  999.0,  999.0,  999.0,  999.0,  999.0,  999.0,  999.0,  999.0,  999.0,  999.0,  999.0,  999.0,  999.0,  999.0,  999.0,  999.0,  999.0,  999.0,  999.0,    2.9,    3.3,    3.9,    4.1,    4.2,    4.8,    5.2,    5.5,    5.4,    5.1,    4.7,    4.3,    4.3,    4.2,    4.0,    3.9,    3.5,    3.4,    3.4,    3.3,    3.2,    3.0,    2.8,    2.5,    2.6,    2.4,    2.7,    2.5,    2.2,    2.0,    2.5,  999.0,  999.0,  999.0,  999.0,  999.0,  999.0,  999.0,  999.0,  999.0,  999.0,  999.0,  999.0,  999.0,  999.0,  999.0
2011/03/21 07:40,   -0.9,   -0.0,    0.2,    1.1,    1.1,    0.2,  999.0,    2.3,    1.8,    2.2,    2.0,    2.4,    2.4,    2.4,    3.4,    4.2,    3.0,    2.3,    2.1,    2.6,    3.2,    3.1,    2.8,    0.8,    0.2,    0.8,    0.8,    0.1,    0.2,   -0.1,  999.0,    1.4,    2.1,  999.0,  999.0,  999.0,  999.0,  999.0,  999.0,  999.0,  999.0,  999.0,  999.0,  999.0,  999.0,  999.0,  999.0,  999.0,    2.8,    3.1,    3.3,    3.2,    3.0,    2.9,    3.1,    3.5,    3.8,    4.3,    4.6,    4.8,    4.4,    4.8,    5.1,    5.2,    5.3,    5.4,    5.3,    5.0,    4.7,    4.3,    4.2,    4.0,    3.9,    3.7,    3.6,    3.5,    3.5,    3.3,    3.1,    2.4,    2.1,    2.5,    2.5,  999.0,  999.0,  999.0,  999.0,  999.0,  999.0,  999.0,  999.0,  999.0,  999.0,  999.0,  999.0,  999.0,  999.0,  999.0
2011/03/21 07:50,   -0.4,    0.3,    0.7,    1.0,    0.7,    0.3,    0.1,    1.8,    2.1,    2.0,    2.0,    1.9,    2.2,    2.7,    3.6,    3.5,    2.7,    2.1,    2.1,    2.8,    3.2,    2.8,    2.3,    0.2,    0.1,    0.5,    0.3,   -0.2,   -0.2,  999.0,  999.0,    1.5,    2.1,  999.0,  999.0,  999.0,  999.0,  999.0,  999.0,  999.0,  999.0,  999.0,  999.0,  999.0,  999.0,  999.0,  999.0,  999.0,  999.0,  999.0,  999.0,  999.0,    3.6,    4.0,    3.6,    3.7,    3.2,    3.1,    3.5,    3.8,    4.0,    4.2,    4.8,    5.2,    5.6,    6.0,    6.0,    6.0,    5.9,    5.7,    5.8,    5.6,    5.6,    5.2,    4.8,    4.8,    4.2,    3.7,    2.7,    2.0,    1.6,    1.7,  999.0,  999.0,  999.0,  999.0,  999.0,  999.0,  999.0,  999.0,  999.0,  999.0,  999.0,  999.0,  999.0,  999.0,  999.0,  999.0
2011/03/21 08:00,   -0.2,    0.7,    1.1,    0.7,    0.7,    0.3,    0.2,    1.8,    2.1,    1.9,    1.4,    1.2,  999.0,    2.3,    3.1,    2.5,    2.2,    1.6,    2.2,    2.7,    3.0,    3.0,    1.6,    0.4,    0.1,    0.2,   -0.1,   -0.3,   -0.4,  999.0,   -0.1,    1.2,  999.0,  999.0,  999.0,  999.0,  999.0,  999.0,  999.0,  999.0,  999.0,  999.0,  999.0,  999.0,  999.0,  999.0,  999.0,  999.0,  999.0,  999.0,  999.0,    2.9,    3.1,    3.3,    3.4,    3.1,    3.6,    3.9,    3.9,    3.6,    3.4,    3.5,    3.8,    4.3,    4.7,    4.9,    4.8,    5.3,    5.5,    5.7,    5.8,    5.8,    5.8,    5.8,    5.9,    5.3,    5.1,    4.0,    3.1,    2.1,    1.8,  999.0,  999.0,  999.0,  999.0,  999.0,  999.0,  999.0,  999.0,  999.0,  999.0,  999.0,  999.0,  999.0,  999.0,  999.0,  999.0,  999.0
2011/03/21 08:10,   -0.0,    0.4,    0.6,    0.4,    0.8,    0.1,  999.0,    0.7,    1.7,    1.8,    1.4,    1.3,    1.8,    2.4,    3.0,    1.5,    1.2,    1.0,    1.6,    2.0,    2.3,    2.2,    1.6,    0.2,    0.0,    0.2,   -0.2,  999.0,   -0.2,  999.0,    0.1,    0.8,    0.9,    0.9,    1.2,  999.0,  999.0,  999.0,  999.0,  999.0,  999.0,  999.0,  999.0,  999.0,  999.0,  999.0,  999.0,  999.0,  999.0,  999.0,  999.0,  999.0,    4.0,    4.0,    3.9,    3.9,    4.0,    3.6,    3.3,    3.4,    3.4,    3.5,    3.7,    3.9,    3.9,    4.0,    3.6,    3.6,    3.5,    3.6,    3.7,    4.5,    5.1,    5.2,    5.4,    5.2,    5.1,    4.2,    3.4,    2.5,    1.9,  999.0,  999.0,  999.0,  999.0,  999.0,  999.0,  999.0,  999.0,  999.0,  999.0,  999.0,  999.0,  999.0,  999.0,  999.0,  999.0,  999.0
2011/03/21 08:20,   -0.4,    0.2,    0.4,    0.4,    0.8,    0.1,    0.5,    1.9,    1.9,    1.8,    1.2,    1.6,    1.6,    2.4,    1.8,    1.0,    0.7,    1.2,    1.6,    1.4,    1.7,    1.5,    1.2,    0.7,    0.8,    0.4,    0.1,   -0.3,    0.0,   -0.2,   -0.3,    0.3,    0.6,    1.0,    1.6,  999.0,    1.9,    1.4,  999.0,  999.0,  999.0,  999.0,    1.4,    1.8,  999.0,  999.0,  999.0,  999.0,  999.0,  999.0,  999.0,  999.0,  999.0,    3.8,    4.1,    4.1,    4.2,    3.8,    3.1,    3.1,    3.4,    3.3,    3.2,    3.1,    3.0,    2.9,    2.9,    2.9,    2.9,    3.0,    3.2,    3.4,    3.4,    3.3,    3.3,    3.9,    3.9,    3.5,    2.8,    2.8,    3.2,    3.5,    3.6,  999.0,  999.0,  999.0,  999.0,  999.0,  999.0,  999.0,  999.0,  999.0,  999.0,  999.0,  999.0,  999.0,  999.0,  999.0
2011/03/21 08:30,   -0.5,    0.1,    0.6,    0.5,    0.8,    0.3,    0.9,    1.9,    2.4,    2.0,    1.7,    1.7,    1.6,    2.3,    2.0,    1.0,    0.9,    1.4,    1.5,    0.9,    1.2,    1.3,    1.0,    0.4,    0.2,    0.5,   -0.1,   -0.3,   -0.4,  999.0,   -0.9,   -0.8,    0.4,  999.0,    1.7,  999.0,    2.0,  999.0,  999.0,  999.0,  999.0,  999.0,    1.5,  999.0,  999.0,  999.0,  999.0,  999.0,  999.0,  999.0,  999.0,  999.0,  999.0,  999.0,  999.0,  999.0,  999.0,  999.0,  999.0,  999.0,  999.0,  999.0,  999.0,    4.2,    3.3,    3.1,    3.4,    3.8,    3.6,    3.4,    3.1,    3.1,    3.2,    3.2,    3.5,    3.9,    3.6,    3.2,    3.2,    3.5,    3.5,    3.2,    3.2,    3.7,    3.8,    3.2,  999.0,  999.0,  999.0,  999.0,  999.0,  999.0,  999.0,  999.0,  999.0,  999.0,  999.0,  999.0
2011/03/21 08:40,   -0.6,   -0.0,    0.6,    0.9,    1.0,    0.5,    0.2,    1.4,    1.9,    1.7,    1.3,    1.4,    1.3,    1.8,    2.6,    1.0,    1.1,  999.0,    1.6,    1.0,    0.8,    0.9,    1.1,    0.8,    0.1,    0.3,   -0.2,   -0.1,   -0.5,  999.0,  999.0,    0.0,    0.3,  999.0,    1.6,    1.5,    1.4,  999.0,  999.0,  999.0,  999.0,  999.0,    1.8,  999.0,  999.0,  999.0,  999.0,  999.0,  999.0,  999.0,  999.0,  999.0,  999.0,  999.0,  999.0,  999.0,  999.0,  999.0,  999.0,  999.0,  999.0,  999.0,  999.0,    3.7,    3.1,    3.3,    3.5,    4.0,    4.3,    4.5,    4.4,    4.2,    4.1,    4.0,    4.1,    3.8,    3.3,    3.4,    3.4,    3.4,    3.1,    3.0,  999.0,  999.0,  999.0,  999.0,  999.0,  999.0,  999.0,  999.0,  999.0,  999.0,  999.0,  999.0,  999.0,  999.0,  999.0,  999.0
2011/03/21 08:50,   -0.2,    0.2,    0.1,    0.4,    0.6,    0.2,    0.2,    0.8,    1.3,    1.2,    0.8,    0.9,    1.0,    1.0,    1.6,    0.4,    0.7,  999.0,    1.7,    1.6,    0.8,    0.9,    0.8,    0.9,    0.8,    0.7,    0.5,    0.1,   -0.1,  999.0,   -0.2,    0.1,  999.0,  999.0,    1.3,    1.4,    1.0,  999.0,  999.0,  999.0,  999.0,  999.0,    1.8,  999.0,  999.0,  999.0,  999.0,  999.0,  999.0,  999.0,  999.0,  999.0,  999.0,  999.0,  999.0,  999.0,  999.0,  999.0,  999.0,  999.0,  999.0,  999.0,  999.0,  999.0,  999.0,  999.0,    4.7,    4.8,    4.8,    5.2,    5.4,    5.1,    4.8,    4.7,    4.5,    4.3,    3.9,  999.0,  999.0,  999.0,  999.0,  999.0,  999.0,  999.0,  999.0,  999.0,  999.0,  999.0,  999.0,  999.0,  999.0,  999.0,  999.0,  999.0,  999.0,  999.0,  999.0,  999.0
2011/03/21 09:00,   -0.1,    0.1,    0.1,    0.4,    0.5,    0.0,    0.1,    0.4,    0.6,    0.9,    0.7,    1.0,    1.0,    0.8,    1.2,   -0.3,    0.2,    0.9,  999.0,    1.8,    1.4,    1.3,    0.9,    1.0,    0.9,    1.0,    1.1,    0.8,    0.1,    0.1,    0.3,    0.9,    0.9,  999.0,  999.0,    1.2,    1.5,  999.0,    1.2,    1.0,  999.0,  999.0,  999.0,  999.0,  999.0,  999.0,  999.0,  999.0,  999.0,  999.0,  999.0,  999.0,  999.0,  999.0,  999.0,  999.0,  999.0,  999.0,  999.0,  999.0,  999.0,  999.0,  999.0,  999.0,  999.0,  999.0,  999.0,  999.0,  999.0,  999.0,  999.0,  999.0,  999.0,  999.0,  999.0,  999.0,  999.0,  999.0,  999.0,  999.0,  999.0,  999.0,  999.0,  999.0,  999.0,  999.0,  999.0,  999.0,  999.0,  999.0,  999.0,  999.0,  999.0,  999.0,  999.0,  999.0,  999.0,  999.0
2011/03/21 09:10,   -0.1,    0.0,    0.3,    0.8,    0.6,    0.3,    0.1,    0.3,    0.3,    0.6,    0.4,    0.5,    1.2,    0.9,    0.9,    0.2,    0.6,    0.9,  999.0,    1.7,    1.8,    2.1,    1.5,    0.7,  999.0,    1.4,    1.3,    0.8,    0.4,  999.0,    0.7,    1.3,  999.0,  999.0,    1.6,  999.0,  999.0,  999.0,  999.0,  999.0,  999.0,  999.0,  999.0,  999.0,  999.0,  999.0,  999.0,  999.0,  999.0,  999.0,  999.0,  999.0,  999.0,  999.0,  999.0,  999.0,  999.0,  999.0,  999.0,  999.0,  999.0,  999.0,  999.0,    4.8,  999.0,    4.2,    4.0,    4.5,    4.8,    5.1,    5.1,    5.1,    4.9,    4.6,    4.1,    3.8,    3.3,    2.6,    2.4,    2.0,    1.7,    1.4,  999.0,  999.0,  999.0,  999.0,  999.0,  999.0,  999.0,  999.0,  999.0,  999.0,  999.0,  999.0,  999.0,  999.0,  999.0,  999.0
2011/03/21 09:20,   -0.0,    0.4,    0.4,    0.7,    0.8,    0.7,    0.1,    0.2,    0.3,    0.3,    0.4,    0.6,    0.7,    1.1,    0.5,    0.2,    1.3,    1.8,  999.0,    2.5,    2.7,    3.1,    2.6,    1.6,    1.5,    1.5,    1.6,    1.6,    1.0,    1.0,    1.6,  999.0,  999.0,  999.0,    1.9,    1.6,  999.0,  999.0,  999.0,  999.0,  999.0,  999.0,  999.0,  999.0,  999.0,  999.0,  999.0,  999.0,  999.0,  999.0,  999.0,  999.0,  999.0,  999.0,  999.0,  999.0,  999.0,  999.0,  999.0,  999.0,  999.0,  999.0,  999.0,  999.0,  999.0,  999.0,  999.0,  999.0,  999.0,  999.0,  999.0,  999.0,  999.0,  999.0,  999.0,  999.0,  999.0,  999.0,  999.0,  999.0,  999.0,  999.0,  999.0,  999.0,  999.0,  999.0,  999.0,  999.0,  999.0,  999.0,  999.0,  999.0,  999.0,  999.0,  999.0,  999.0,  999.0,  999.0
2011/03/21 09:30,    0.0,    0.1,    0.1,    0.2,    0.0,   -0.4,  999.0,    0.2,    0.5,    0.6,    0.6,    1.1,    0.3,    0.6,    1.1,  999.0,    1.3,    2.1,    2.8,    3.0,    3.1,    3.4,    2.9,    1.7,    1.4,  999.0,    0.7,    1.1,    0.9,    1.1,    1.3,  999.0,  999.0,  999.0,    1.6,  999.0,    0.9,    1.6,    1.9,  999.0,  999.0,  999.0,  999.0,  999.0,  999.0,  999.0,  999.0,  999.0,  999.0,  999.0,  999.0,  999.0,  999.0,  999.0,  999.0,  999.0,  999.0,  999.0,  999.0,  999.0,  999.0,  999.0,    3.6,  999.0,  999.0,  999.0,  999.0,  999.0,  999.0,  999.0,  999.0,  999.0,  999.0,  999.0,  999.0,  999.0,  999.0,  999.0,  999.0,  999.0,  999.0,  999.0,  999.0,  999.0,  999.0,  999.0,  999.0,  999.0,  999.0,  999.0,  999.0,  999.0,  999.0,  999.0,  999.0,  999.0,  999.0,  999.0
2011/03/21 09:40,    0.1,    0.2,    0.3,    0.1,   -0.7,   -0.4,    0.1,    0.9,    0.8,    0.6,    1.1,    1.4,    2.0,    0.9,    0.5,    0.8,    1.0,    1.8,    2.4,    2.5,    2.9,    3.0,    2.8,    1.7,    1.2,    1.0,    1.1,    0.8,    0.2,    0.6,  999.0,  999.0,  999.0,  999.0,  999.0,  999.0,    0.8,  999.0,    1.4,  999.0,  999.0,  999.0,  999.0,  999.0,  999.0,  999.0,  999.0,  999.0,  999.0,  999.0,  999.0,  999.0,  999.0,  999.0,  999.0,  999.0,  999.0,  999.0,  999.0,  999.0,  999.0,  999.0,  999.0,  999.0,  999.0,  999.0,  999.0,  999.0,  999.0,  999.0,  999.0,  999.0,  999.0,  999.0,  999.0,  999.0,  999.0,  999.0,  999.0,  999.0,  999.0,  999.0,  999.0,  999.0,  999.0,  999.0,  999.0,  999.0,  999.0,  999.0,  999.0,  999.0,  999.0,  999.0,  999.0,  999.0,  999.0,  999.0
2011/03/21 09:50,    0.2,   -0.1,    0.1,    0.4,    0.6,    0.2,    0.5,    0.8,    0.7,    0.6,    0.8,    1.3,    1.3,    0.9,    0.7,    0.8,    0.8,    1.8,    2.2,    2.3,    2.5,    2.2,    2.0,    1.1,    0.9,    1.1,    0.4,    0.2,   -0.1,   -0.2,  999.0,  999.0,  999.0,    0.8,   -0.4,   -0.1,  999.0,  999.0,  999.0,    1.1,  999.0,  999.0,  999.0,  999.0,  999.0,  999.0,  999.0,  999.0,  999.0,  999.0,  999.0,  999.0,  999.0,  999.0,  999.0,  999.0,  999.0,  999.0,  999.0,  999.0,  999.0,  999.0,  999.0,  999.0,  999.0,  999.0,  999.0,  999.0,  999.0,  999.0,  999.0,  999.0,  999.0,  999.0,  999.0,  999.0,  999.0,  999.0,  999.0,  999.0,  999.0,  999.0,  999.0,  999.0,  999.0,  999.0,  999.0,  999.0,  999.0,  999.0,  999.0,  999.0,  999.0,  999.0,  999.0,  999.0,  999.0,  999.0
2011/03/21 10:00,    0.0,    0.2,    0.1,   -0.4,   -0.6,    0.1,    0.2,    0.8,  999.0,    0.7,    0.9,    1.0,    0.8,    1.0,    1.8,    1.5,    1.4,    1.4,    2.1,    2.4,    2.0,    1.3,    1.3,    0.5,  999.0,    0.3,    0.2,   -0.1,   -0.1,    0.4,    0.2,  999.0,  999.0,    0.3,   -0.4,  999.0,  999.0,  999.0,    1.5,  999.0,  999.0,  999.0,  999.0,  999.0,  999.0,  999.0,  999.0,  999.0,  999.0,  999.0,  999.0,  999.0,  999.0,  999.0,  999.0,  999.0,  999.0,  999.0,  999.0,  999.0,  999.0,  999.0,  999.0,  999.0,  999.0,  999.0,  999.0,  999.0,  999.0,  999.0,  999.0,  999.0,  999.0,  999.0,  999.0,  999.0,  999.0,  999.0,  999.0,  999.0,  999.0,  999.0,  999.0,  999.0,  999.0,  999.0,  999.0,  999.0,  999.0,  999.0,  999.0,  999.0,  999.0,  999.0,  999.0,  999.0,  999.0,  999.0
2011/03/21 10:10,    0.0,   -0.0,   -0.8,   -0.6,   -0.4,   -0.8,   -0.2,    1.1,    2.1,    1.2,  999.0,    0.6,    1.1,    1.6,    2.5,    2.5,    2.5,    2.0,    2.3,    2.4,    2.4,    1.9,    1.4,    1.0,    0.9,    0.8,    0.4,   -0.0,    0.0,    0.3,    0.7,  999.0,  999.0,   -0.3,  999.0,    0.9,  999.0,  999.0,    1.3,  999.0,  999.0,  999.0,  999.0,  999.0,  999.0,  999.0,  999.0,  999.0,  999.0,  999.0,  999.0,  999.0,  999.0,  999.0,  999.0,  999.0,  999.0,  999.0,  999.0,  999.0,  999.0,  999.0,  999.0,  999.0,  999.0,  999.0,  999.0,  999.0,  999.0,  999.0,  999.0,  999.0,  999.0,  999.0,  999.0,  999.0,  999.0,  999.0,  999.0,  999.0,  999.0,  999.0,  999.0,  999.0,  999.0,  999.0,  999.0,  999.0,  999.0,  999.0,  999.0,  999.0,  999.0,  999.0,  999.0,  999.0,  999.0,  999.0
2011/03/21 10:20,    0.2,    0.2,    0.1,    0.2,   -0.3,   -1.2,   -0.4,   -0.4,    0.7,    0.4,  999.0,  999.0,  999.0,  999.0,    2.0,    2.4,    2.6,    2.7,    3.0,    3.1,    3.3,    2.2,    1.6,    1.0,    0.9,  999.0,    0.4,    0.2,    0.1,    0.1,    0.6,  999.0,  999.0,  999.0,   -0.3,  999.0,  999.0,  999.0,  999.0,  999.0,  999.0,  999.0,  999.0,  999.0,  999.0,  999.0,  999.0,  999.0,  999.0,  999.0,  999.0,  999.0,  999.0,  999.0,  999.0,  999.0,  999.0,  999.0,  999.0,  999.0,  999.0,  999.0,  999.0,  999.0,  999.0,  999.0,  999.0,  999.0,  999.0,  999.0,  999.0,  999.0,  999.0,  999.0,  999.0,  999.0,  999.0,  999.0,  999.0,  999.0,  999.0,  999.0,  999.0,  999.0,  999.0,  999.0,  999.0,  999.0,  999.0,  999.0,  999.0,  999.0,  999.0,  999.0,  999.0,  999.0,  999.0,  999.0
2011/03/21 10:30,    0.2,    0.3,    0.1,    0.6,    0.1,    0.1,    0.4,    0.2,   -0.1,    0.1,    0.5,    0.1,    0.4,    0.6,    0.6,    1.4,    2.8,    2.8,    2.7,    2.9,    2.4,    1.9,    1.2,    0.9,    0.8,    0.7,    0.3,    0.0,   -0.2,   -0.4,    0.2,   -0.2,  999.0,   -0.9,   -0.5,  999.0,  999.0,  999.0,  999.0,  999.0,  999.0,  999.0,  999.0,  999.0,  999.0,  999.0,  999.0,  999.0,  999.0,  999.0,  999.0,  999.0,  999.0,  999.0,  999.0,  999.0,  999.0,  999.0,  999.0,  999.0,  999.0,  999.0,  999.0,  999.0,  999.0,  999.0,  999.0,  999.0,  999.0,  999.0,  999.0,  999.0,  999.0,  999.0,  999.0,  999.0,  999.0,  999.0,  999.0,  999.0,  999.0,  999.0,  999.0,  999.0,  999.0,  999.0,  999.0,  999.0,  999.0,  999.0,  999.0,  999.0,  999.0,  999.0,  999.0,  999.0,  999.0,  999.0
2011/03/21 10:40,   -0.0,    0.1,    0.3,  999.0,  999.0,    1.2,  999.0,    0.4,    0.2,    0.4,   -0.1,  999.0,    0.6,  999.0,    0.3,    0.0,    0.8,    1.3,    1.6,    2.4,    2.2,    1.5,    1.0,  999.0,    1.6,    1.3,    0.4,    0.0,   -0.2,   -0.7,   -0.2,   -0.4,   -0.6,   -0.8,   -0.5,  999.0,  999.0,  999.0,  999.0,  999.0,  999.0,  999.0,  999.0,  999.0,  999.0,  999.0,  999.0,  999.0,  999.0,  999.0,  999.0,  999.0,  999.0,  999.0,  999.0,  999.0,  999.0,  999.0,  999.0,  999.0,  999.0,  999.0,  999.0,  999.0,  999.0,  999.0,  999.0,  999.0,  999.0,  999.0,  999.0,  999.0,  999.0,  999.0,  999.0,  999.0,  999.0,  999.0,  999.0,  999.0,  999.0,  999.0,  999.0,  999.0,  999.0,  999.0,  999.0,  999.0,  999.0,  999.0,  999.0,  999.0,  999.0,  999.0,  999.0,  999.0,  999.0,  999.0
2011/03/21 10:50,    0.2,    0.3,    0.1,    0.4,    1.8,    0.2,   -0.0,    0.2,    0.0,   -0.0,   -0.0,    0.1,    0.1,    0.3,    0.5,    0.5,    0.7,    0.4,    1.1,    1.9,    1.8,    1.0,    1.3,    1.5,    1.3,  999.0,    0.5,    0.3,    0.1,    0.0,    0.3,    0.3,   -0.5,   -0.6,    0.4,  999.0,  999.0,  999.0,  999.0,  999.0,  999.0,  999.0,  999.0,  999.0,  999.0,  999.0,  999.0,  999.0,  999.0,  999.0,  999.0,  999.0,  999.0,  999.0,  999.0,  999.0,  999.0,  999.0,  999.0,  999.0,  999.0,  999.0,  999.0,  999.0,  999.0,  999.0,  999.0,  999.0,  999.0,  999.0,  999.0,  999.0,  999.0,  999.0,  999.0,  999.0,  999.0,  999.0,  999.0,  999.0,  999.0,  999.0,  999.0,  999.0,  999.0,  999.0,  999.0,  999.0,  999.0,  999.0,  999.0,  999.0,  999.0,  999.0,  999.0,  999.0,  999.0,  999.0
2011/03/21 11:00,    0.1,    0.3,   -0.2,  999.0,   -0.9,   -1.4,   -0.5,   -0.4,    0.2,   -0.0,   -0.1,   -0.0,    0.0,    0.0,    0.0,    0.5,    0.0,    0.4,    1.3,    1.4,    1.1,    0.9,    1.0,    1.2,  999.0,  999.0,    0.1,    0.1,    0.1,    0.1,  999.0,   -0.2,   -0.8,   -0.3,   -0.3,  999.0,  999.0,    1.1,  999.0,  999.0,  999.0,  999.0,  999.0,  999.0,  999.0,  999.0,  999.0,  999.0,  999.0,  999.0,  999.0,  999.0,  999.0,  999.0,  999.0,  999.0,  999.0,  999.0,  999.0,  999.0,  999.0,  999.0,  999.0,  999.0,  999.0,  999.0,  999.0,  999.0,  999.0,  999.0,  999.0,  999.0,  999.0,  999.0,  999.0,  999.0,  999.0,  999.0,  999.0,  999.0,  999.0,  999.0,  999.0,  999.0,  999.0,  999.0,  999.0,  999.0,  999.0,  999.0,  999.0,  999.0,  999.0,  999.0,  999.0,  999.0,  999.0,  999.0
2011/03/21 11:10,    0.1,    0.1,   -0.1,   -0.1,   -0.3,   -0.5,   -0.0,   -0.3,   -0.3,   -0.1,   -0.3,   -0.1,    0.1,    0.2,    0.1,  999.0,    0.2,    0.0,    0.9,    0.6,    0.5,    0.5,    0.8,    1.2,    0.7,   -0.2,    0.5,    0.2,    0.2,    0.1,    0.4,   -0.3,   -0.5,  999.0,  999.0,  999.0,    1.0,    1.5,  999.0,  999.0,  999.0,  999.0,  999.0,  999.0,  999.0,  999.0,  999.0,  999.0,  999.0,  999.0,  999.0,  999.0,  999.0,  999.0,  999.0,  999.0,  999.0,  999.0,  999.0,  999.0,  999.0,  999.0,  999.0,  999.0,  999.0,  999.0,  999.0,  999.0,  999.0,  999.0,  999.0,  999.0,  999.0,  999.0,  999.0,  999.0,  999.0,  999.0,  999.0,  999.0,  999.0,  999.0,  999.0,  999.0,  999.0,  999.0,  999.0,  999.0,  999.0,  999.0,  999.0,  999.0,  999.0,  999.0,  999.0,  999.0,  999.0,  999.0
2011/03/21 11:20,    0.1,    0.2,    0.1,    0.6,    0.5,    0.0,    0.1,    0.0,    0.1,   -0.0,   -0.1,   -0.2,   -0.0,    0.0,   -0.2,   -0.3,   -0.1,   -0.1,    0.4,    0.4,    0.3,    0.8,    1.4,    1.8,  999.0,    0.4,    0.8,    0.2,    0.3,    0.2,    0.2,   -0.5,  999.0,  999.0,  999.0,  999.0,    0.9,  999.0,  999.0,  999.0,  999.0,  999.0,  999.0,  999.0,  999.0,  999.0,  999.0,  999.0,  999.0,  999.0,  999.0,  999.0,  999.0,  999.0,  999.0,  999.0,  999.0,  999.0,  999.0,  999.0,  999.0,  999.0,  999.0,  999.0,  999.0,  999.0,  999.0,  999.0,  999.0,  999.0,  999.0,  999.0,  999.0,  999.0,  999.0,  999.0,  999.0,  999.0,  999.0,  999.0,  999.0,  999.0,  999.0,  999.0,  999.0,  999.0,  999.0,  999.0,  999.0,  999.0,  999.0,  999.0,  999.0,  999.0,  999.0,  999.0,  999.0,  999.0
2011/03/21 11:30,  999.0,    0.4,    0.2,    0.7,    0.5,    0.1,   -0.0,    0.1,    0.0,    0.0,   -0.1,   -0.1,   -0.1,    0.0,   -0.0,   -0.2,   -0.2,   -0.1,   -0.0,    0.2,    0.3,    0.8,    1.8,    1.4,    0.9,    1.2,    0.7,    0.3,    0.2,   -0.0,   -0.2,   -0.2,   -0.3,  999.0,  999.0,  999.0,  999.0,  999.0,  999.0,  999.0,  999.0,  999.0,  999.0,  999.0,  999.0,  999.0,  999.0,  999.0,  999.0,  999.0,  999.0,  999.0,  999.0,  999.0,  999.0,  999.0,  999.0,  999.0,  999.0,  999.0,  999.0,  999.0,  999.0,  999.0,  999.0,  999.0,  999.0,  999.0,  999.0,  999.0,  999.0,  999.0,  999.0,  999.0,  999.0,  999.0,  999.0,  999.0,  999.0,  999.0,  999.0,  999.0,  999.0,  999.0,  999.0,  999.0,  999.0,  999.0,  999.0,  999.0,  999.0,  999.0,  999.0,  999.0,  999.0,  999.0,  999.0,  999.0
2011/03/21 11:40,    0.0,    0.2,    0.3,    1.3,    0.7,    0.0,    0.0,   -0.0,    0.0,   -0.1,   -0.6,   -0.2,   -0.4,   -0.2,   -0.1,  999.0,   -0.2,   -0.2,    0.2,  999.0,    0.2,    0.7,    1.1,    1.2,    0.9,    0.5,    0.6,    0.3,    0.2,    0.2,    0.2,   -0.2,  999.0,   -0.7,  999.0,    0.9,  999.0,  999.0,  999.0,  999.0,  999.0,  999.0,  999.0,  999.0,  999.0,  999.0,  999.0,  999.0,  999.0,  999.0,  999.0,  999.0,  999.0,  999.0,  999.0,  999.0,  999.0,  999.0,  999.0,  999.0,  999.0,  999.0,  999.0,  999.0,  999.0,  999.0,  999.0,  999.0,  999.0,  999.0,  999.0,  999.0,  999.0,  999.0,  999.0,  999.0,  999.0,  999.0,  999.0,  999.0,  999.0,  999.0,  999.0,  999.0,  999.0,  999.0,  999.0,  999.0,  999.0,  999.0,  999.0,  999.0,  999.0,  999.0,  999.0,  999.0,  999.0,  999.0
2011/03/21 11:50,    0.3,    0.4,    0.4,    0.9,    0.7,    0.3,  999.0,    0.4,    0.1,   -0.2,   -0.2,   -0.2,   -0.1,    0.2,   -0.1,   -0.1,   -0.0,   -0.1,    0.3,  999.0,    0.6,    0.9,    1.1,    1.0,    1.0,    0.7,    0.4,    0.3,    0.3,    0.2,    0.2,   -0.1,    0.1,  999.0,  999.0,    1.5,  999.0,  999.0,  999.0,  999.0,  999.0,  999.0,  999.0,  999.0,  999.0,  999.0,  999.0,  999.0,  999.0,  999.0,  999.0,  999.0,  999.0,  999.0,  999.0,  999.0,  999.0,  999.0,  999.0,  999.0,  999.0,  999.0,  999.0,  999.0,  999.0,  999.0,  999.0,  999.0,  999.0,  999.0,  999.0,  999.0,  999.0,  999.0,  999.0,  999.0,  999.0,  999.0,  999.0,  999.0,  999.0,  999.0,  999.0,  999.0,  999.0,  999.0,  999.0,  999.0,  999.0,  999.0,  999.0,  999.0,  999.0,  999.0,  999.0,  999.0,  999.0,  999.0
2011/03/21 12:00,    0.0,    0.5,    0.3,    1.1,    0.9,   -0.0,    0.3,    0.1,   -0.1,   -0.1,    0.1,   -0.1,    0.0,   -0.3,   -0.0,   -0.1,    0.2,    0.3,    0.4,  999.0,    1.3,    1.8,    1.8,    1.3,    1.1,    0.2,    0.6,    0.6,    0.2,    0.2,   -0.2,    0.2,   -0.3,    0.1,  999.0,    1.9,  999.0,  999.0,  999.0,  999.0,  999.0,  999.0,  999.0,  999.0,  999.0,  999.0,  999.0,  999.0,  999.0,  999.0,  999.0,  999.0,  999.0,  999.0,  999.0,  999.0,  999.0,  999.0,  999.0,  999.0,  999.0,  999.0,  999.0,  999.0,  999.0,  999.0,  999.0,  999.0,  999.0,  999.0,  999.0,  999.0,  999.0,  999.0,  999.0,  999.0,  999.0,  999.0,  999.0,  999.0,  999.0,  999.0,  999.0,  999.0,  999.0,  999.0,  999.0,  999.0,  999.0,  999.0,  999.0,  999.0,  999.0,  999.0,  999.0,  999.0,  999.0,  999.0
2011/03/21 12:10,    0.1,    0.4,    0.2,    0.1,    0.3,   -0.2,    0.0,   -0.0,    0.5,    0.1,   -0.0,   -0.1,   -0.0,    0.0,    0.2,    0.4,    0.9,    1.0,    0.9,    0.8,    0.9,    1.5,    1.5,    1.2,    1.0,  999.0,    0.2,    0.4,    0.2,    0.4,    0.2,    0.3,   -0.5,  999.0,  999.0,  999.0,  999.0,  999.0,  999.0,  999.0,  999.0,  999.0,  999.0,  999.0,  999.0,  999.0,  999.0,  999.0,  999.0,  999.0,  999.0,  999.0,  999.0,  999.0,  999.0,  999.0,  999.0,  999.0,  999.0,  999.0,  999.0,  999.0,  999.0,  999.0,  999.0,  999.0,  999.0,  999.0,  999.0,  999.0,  999.0,  999.0,  999.0,  999.0,  999.0,  999.0,  999.0,  999.0,  999.0,  999.0,  999.0,  999.0,  999.0,  999.0,  999.0,  999.0,  999.0,  999.0,  999.0,  999.0,  999.0,  999.0,  999.0,  999.0,  999.0,  999.0,  999.0,  999.0
2011/03/21 12:20,    0.2,    0.3,    0.3,    0.5,    0.5,    0.1,    0.1,    0.3,    0.3,    0.3,   -0.3,   -0.3,    0.3,    0.1,   -0.1,    0.2,    1.1,    1.7,    1.6,    1.0,    1.6,    2.1,    1.6,    1.5,    1.2,  999.0,    1.0,    0.4,    0.1,    0.1,    0.6,    0.6,    0.1,  999.0,    1.1,    1.5,  999.0,  999.0,  999.0,  999.0,  999.0,  999.0,  999.0,  999.0,  999.0,  999.0,  999.0,  999.0,  999.0,  999.0,  999.0,  999.0,  999.0,  999.0,  999.0,  999.0,  999.0,  999.0,  999.0,  999.0,  999.0,  999.0,  999.0,  999.0,  999.0,  999.0,  999.0,  999.0,  999.0,  999.0,  999.0,  999.0,  999.0,  999.0,  999.0,  999.0,  999.0,  999.0,  999.0,  999.0,  999.0,  999.0,  999.0,  999.0,  999.0,  999.0,  999.0,  999.0,  999.0,  999.0,  999.0,  999.0,  999.0,  999.0,  999.0,  999.0,  999.0,  999.0
2011/03/21 12:30,    0.2,    0.4,    0.2,    0.7,    0.4,    0.2,    0.1,    0.3,    0.0,    0.4,   -0.1,   -0.5,   -0.0,   -0.3,   -1.0,   -1.2,   -0.3,  999.0,    0.9,    0.7,    0.7,    1.0,    0.7,  999.0,  999.0,   -0.0,   -0.4,   -0.3,   -0.4,   -0.1,   -0.0,  999.0,  999.0,  999.0,  999.0,  999.0,  999.0,  999.0,  999.0,  999.0,  999.0,  999.0,  999.0,  999.0,  999.0,  999.0,  999.0,  999.0,  999.0,  999.0,  999.0,  999.0,  999.0,  999.0,  999.0,  999.0,  999.0,  999.0,  999.0,  999.0,  999.0,  999.0,  999.0,  999.0,  999.0,  999.0,  999.0,  999.0,  999.0,  999.0,  999.0,  999.0,  999.0,  999.0,  999.0,  999.0,  999.0,  999.0,  999.0,  999.0,  999.0,  999.0,  999.0,  999.0,  999.0,  999.0,  999.0,  999.0,  999.0,  999.0,  999.0,  999.0,  999.0,  999.0,  999.0,  999.0,  999.0,  999.0
2011/03/21 12:40,    0.2,    0.1,    0.1,    0.2,    0.2,    0.0,   -0.1,    0.0,    0.1,   -0.2,    0.1,    0.6,    0.9,    0.1,   -0.1,    0.0,   -0.1,    1.3,  999.0,    0.7,    0.9,    0.8,    0.9,    0.7,    0.6,    0.2,  999.0,   -0.1,   -0.2,   -0.3,   -0.1,    0.2,   -0.1,    0.9,    1.4,    2.1,  999.0,  999.0,  999.0,  999.0,  999.0,  999.0,  999.0,  999.0,  999.0,  999.0,  999.0,  999.0,  999.0,  999.0,  999.0,  999.0,  999.0,  999.0,  999.0,  999.0,  999.0,  999.0,  999.0,  999.0,  999.0,  999.0,  999.0,  999.0,  999.0,  999.0,  999.0,  999.0,  999.0,  999.0,  999.0,  999.0,  999.0,  999.0,  999.0,  999.0,  999.0,  999.0,  999.0,  999.0,  999.0,  999.0,  999.0,  999.0,  999.0,  999.0,  999.0,  999.0,  999.0,  999.0,  999.0,  999.0,  999.0,  999.0,  999.0,  999.0,  999.0,  999.0
2011/03/21 12:50,    0.2,    0.3,    0.1,   -0.1,   -0.3,   -0.1,    0.0,    0.0,    0.1,   -0.1,    1.2,    2.0,    2.8,    2.4,    1.3,    0.9,  999.0,    2.0,  999.0,    1.8,    1.4,    1.2,    1.1,    0.4,    0.2,  999.0,   -0.3,   -0.3,   -0.3,   -0.7,   -0.3,  999.0,    0.1,    0.6,    1.4,  999.0,  999.0,  999.0,  999.0,  999.0,  999.0,  999.0,  999.0,  999.0,  999.0,  999.0,  999.0,  999.0,  999.0,  999.0,  999.0,  999.0,  999.0,  999.0,  999.0,  999.0,  999.0,  999.0,  999.0,  999.0,  999.0,  999.0,  999.0,  999.0,  999.0,  999.0,  999.0,  999.0,  999.0,  999.0,  999.0,  999.0,  999.0,  999.0,  999.0,  999.0,  999.0,  999.0,  999.0,  999.0,  999.0,  999.0,  999.0,  999.0,  999.0,  999.0,    2.0,    1.3,    0.6,  999.0,  999.0,  999.0,   -0.1,   -0.2,   -0.8,   -0.8,   -0.8,   -1.2
2011/03/21 13:00,    0.2,    0.3,    0.1,    0.2,   -0.2,   -0.1,  999.0,    0.1,    0.2,    0.8,    1.4,    2.7,    3.4,    2.7,    2.7,    1.0,    1.4,    1.9,    1.5,    1.5,    1.1,    1.1,  999.0,  999.0,    0.1,    0.4,    0.2,    0.1,    0.2,    0.4,    0.5,  999.0,    1.7,    2.3,    2.7,  999.0,  999.0,  999.0,  999.0,  999.0,  999.0,  999.0,  999.0,  999.0,  999.0,  999.0,  999.0,  999.0,  999.0,  999.0,  999.0,  999.0,  999.0,  999.0,  999.0,  999.0,  999.0,  999.0,  999.0,  999.0,  999.0,  999.0,  999.0,  999.0,  999.0,  999.0,  999.0,  999.0,  999.0,  999.0,  999.0,  999.0,  999.0,  999.0,  999.0,    1.7,    2.1,    2.4,    2.2,    2.2,    2.0,    1.9,    2.1,    1.9,    2.0,    1.9,    1.5,    1.0,    0.4,    0.0,   -0.4,   -0.6,   -0.8,   -1.0,   -1.1,   -1.2,   -1.3,   -1.5
2011/03/21 13:10,    0.2,    0.2,    0.0,   -0.1,  999.0,   -0.1,   -0.1,    0.1,    0.2,    0.7,    1.6,    2.4,    2.2,    2.2,    2.0,    2.0,    2.3,    1.6,    1.5,    1.4,    0.9,    1.1,    0.6,    0.6,    0.7,  999.0,    0.3,    0.3,    0.2,    0.6,  999.0,  999.0,    1.8,    2.4,    2.3,  999.0,  999.0,  999.0,  999.0,  999.0,  999.0,  999.0,  999.0,  999.0,  999.0,  999.0,  999.0,  999.0,  999.0,  999.0,  999.0,  999.0,  999.0,  999.0,  999.0,  999.0,  999.0,  999.0,  999.0,  999.0,    1.7,    1.5,    1.6,    1.5,    1.3,    1.9,    1.7,    1.4,    1.5,    1.8,    2.0,    2.4,    2.1,    2.0,    2.1,    2.6,    2.9,    2.8,    2.5,    2.0,    1.4,    0.8,    0.3,    0.0,   -0.1,   -0.2,   -0.8,   -1.6,   -2.1,   -2.5,   -2.4,   -2.1,   -2.0,   -1.9,   -1.9,   -2.1,   -2.3,   -2.5
2011/03/21 13:20,    0.3,    0.4,    0.2,    0.1,   -0.1,   -0.0,    0.0,    0.3,    0.3,    1.1,    2.1,    2.4,    2.0,    1.6,    1.8,    2.9,    3.2,    2.3,    1.8,    1.3,    1.2,    1.2,    1.2,    0.9,    0.5,    0.3,    0.4,    0.5,    0.2,    0.0,  999.0,  999.0,    1.9,  999.0,  999.0,  999.0,  999.0,  999.0,  999.0,  999.0,  999.0,  999.0,  999.0,  999.0,  999.0,  999.0,  999.0,  999.0,  999.0,  999.0,  999.0,  999.0,  999.0,  999.0,  999.0,  999.0,  999.0,  999.0,  999.0,  999.0,  999.0,  999.0,  999.0,  999.0,  999.0,    1.2,    1.4,    1.4,    2.0,    2.3,    2.5,    2.8,    2.7,    2.6,    2.9,    3.5,    3.4,    3.5,  999.0,  999.0,  999.0,  999.0,  999.0,  999.0,  999.0,  999.0,  999.0,  999.0,  999.0,  999.0,  999.0,  999.0,  999.0,  999.0,  999.0,  999.0,   -2.7,   -3.0
2011/03/21 13:30,    0.2,    0.5,    0.1,    0.3,    0.3,   -0.0,   -0.0,    0.3,    0.8,    1.7,    2.4,    2.6,    1.9,    2.0,    0.4,    2.1,    2.5,    1.0,    1.0,    1.1,    1.2,  999.0,    0.6,  999.0,    0.0,   -0.7,   -0.7,   -0.2,    0.1,    0.4,    0.3,  999.0,  999.0,  999.0,  999.0,    2.3,  999.0,  999.0,  999.0,  999.0,  999.0,  999.0,  999.0,  999.0,  999.0,  999.0,  999.0,  999.0,  999.0,  999.0,  999.0,  999.0,  999.0,  999.0,  999.0,  999.0,  999.0,  999.0,  999.0,  999.0,  999.0,  999.0,  999.0,  999.0,  999.0,  999.0,  999.0,  999.0,  999.0,  999.0,  999.0,  999.0,  999.0,  999.0,  999.0,  999.0,  999.0,  999.0,  999.0,  999.0,  999.0,  999.0,  999.0,  999.0,  999.0,  999.0,  999.0,  999.0,  999.0,   -1.6,  999.0,   -2.3,   -2.5,   -2.7,   -2.9,   -2.8,  999.0,   -2.6
2011/03/21 13:40,    0.1,    0.6,    0.4,    0.2,    0.4,   -0.0,  999.0,   -0.0,    0.1,    1.2,    2.3,    0.8,    1.7,    1.6,    2.1,    2.1,    2.5,    2.0,    1.4,    1.1,    1.2,    1.1,    0.2,    0.3,   -0.3,   -0.7,   -0.5,   -0.3,    0.0,    0.3,    1.0,  999.0,    1.6,    1.9,  999.0,    1.4,  999.0,  999.0,  999.0,  999.0,  999.0,  999.0,  999.0,  999.0,  999.0,  999.0,  999.0,  999.0,  999.0,  999.0,  999.0,  999.0,  999.0,  999.0,  999.0,  999.0,  999.0,  999.0,  999.0,  999.0,  999.0,  999.0,  999.0,  999.0,  999.0,  999.0,  999.0,  999.0,  999.0,  999.0,  999.0,  999.0,  999.0,  999.0,  999.0,  999.0,  999.0,  999.0,  999.0,  999.0,  999.0,  999.0,  999.0,  999.0,  999.0,  999.0,  999.0,  999.0,  999.0,  999.0,  999.0,  999.0,  999.0,  999.0,  999.0,  999.0,  999.0,  999.0
2011/03/21 13:50,    0.3,    0.1,    0.2,    0.2,    0.2,   -0.0,   -0.2,    0.1,    0.2,    1.4,    1.2,    2.0,    2.7,    1.9,    1.2,    2.1,    2.5,    2.4,    1.8,    1.2,    1.0,    1.1,  999.0,    0.3,    0.4,    0.0,   -0.2,    0.2,    0.2,    0.3,    1.8,    2.0,    1.9,  999.0,  999.0,  999.0,  999.0,  999.0,  999.0,  999.0,  999.0,  999.0,  999.0,  999.0,  999.0,  999.0,  999.0,  999.0,  999.0,  999.0,  999.0,  999.0,  999.0,  999.0,  999.0,  999.0,  999.0,  999.0,  999.0,    4.0,  999.0,  999.0,  999.0,  999.0,  999.0,  999.0,  999.0,  999.0,  999.0,  999.0,  999.0,  999.0,  999.0,  999.0,  999.0,  999.0,  999.0,  999.0,  999.0,  999.0,  999.0,  999.0,  999.0,  999.0,  999.0,  999.0,  999.0,  999.0,  999.0,  999.0,  999.0,  999.0,  999.0,  999.0,  999.0,  999.0,  999.0,  999.0
2011/03/21 14:00,    0.2,    0.2,    0.2,   -0.1,   -0.9,   -1.4,   -0.4,   -0.3,    0.2,    1.0,    1.8,    1.8,    1.7,    1.4,    0.6,    1.6,    1.9,    2.4,    1.6,    0.9,    0.9,    1.0,  999.0,  999.0,  999.0,    0.4,    0.3,    0.4,    0.3,    0.8,  999.0,    1.5,    1.5,  999.0,  999.0,  999.0,  999.0,  999.0,  999.0,  999.0,  999.0,  999.0,  999.0,  999.0,  999.0,  999.0,  999.0,  999.0,  999.0,  999.0,  999.0,  999.0,  999.0,  999.0,  999.0,  999.0,  999.0,  999.0,  999.0,  999.0,  999.0,  999.0,  999.0,  999.0,  999.0,  999.0,  999.0,  999.0,  999.0,  999.0,  999.0,  999.0,  999.0,  999.0,  999.0,  999.0,  999.0,  999.0,  999.0,  999.0,  999.0,  999.0,  999.0,  999.0,  999.0,  999.0,  999.0,  999.0,  999.0,  999.0,  999.0,  999.0,  999.0,  999.0,  999.0,  999.0,  999.0,  999.0
2011/03/21 14:10,    0.3,    0.3,   -0.0,   -0.2,   -1.2,   -1.6,   -0.4,    0.0,   -0.0,    0.1,    1.4,    1.6,    0.6,    1.1,    1.2,    1.6,    2.2,    2.6,    2.1,    1.5,    1.3,    0.9,    0.8,    0.9,    0.6,    1.1,    0.9,    0.6,    0.7,    0.8,  999.0,  999.0,  999.0,  999.0,  999.0,    0.7,  999.0,  999.0,  999.0,  999.0,  999.0,  999.0,  999.0,  999.0,  999.0,  999.0,  999.0,  999.0,  999.0,  999.0,  999.0,  999.0,  999.0,  999.0,  999.0,  999.0,  999.0,  999.0,  999.0,  999.0,  999.0,  999.0,  999.0,  999.0,  999.0,  999.0,  999.0,  999.0,  999.0,  999.0,  999.0,  999.0,  999.0,  999.0,  999.0,  999.0,  999.0,  999.0,  999.0,  999.0,  999.0,  999.0,  999.0,  999.0,  999.0,  999.0,  999.0,  999.0,  999.0,  999.0,  999.0,  999.0,  999.0,  999.0,  999.0,  999.0,  999.0,  999.0
2011/03/21 14:20,    0.3,    0.3,    0.1,    0.1,   -0.1,   -0.5,   -0.5,   -0.7,   -0.2,    0.2,    1.2,    0.8,    0.8,    1.0,    1.2,    1.7,    2.3,    2.5,    2.1,    1.5,    0.8,    0.7,    0.5,    0.3,    0.8,    1.1,    0.7,    0.4,    0.4,    0.4,    0.3,  999.0,  999.0,  999.0,  999.0,  999.0,  999.0,  999.0,  999.0,  999.0,  999.0,  999.0,  999.0,  999.0,  999.0,  999.0,  999.0,  999.0,  999.0,  999.0,  999.0,  999.0,  999.0,  999.0,  999.0,  999.0,  999.0,  999.0,  999.0,  999.0,  999.0,  999.0,  999.0,  999.0,  999.0,  999.0,  999.0,  999.0,  999.0,  999.0,  999.0,  999.0,  999.0,  999.0,  999.0,  999.0,  999.0,  999.0,  999.0,  999.0,  999.0,  999.0,  999.0,  999.0,  999.0,  999.0,  999.0,  999.0,  999.0,  999.0,  999.0,  999.0,  999.0,  999.0,  999.0,  999.0,  999.0,  999.0
2011/03/21 14:30,    0.4,    0.4,    0.1,    0.1,   -0.2,   -0.5,   -0.3,   -0.1,   -0.5,   -0.2,    0.1,    0.3,    0.5,    0.4,    0.8,    1.1,    1.5,    1.7,    1.7,    1.3,    0.6,    0.5,    0.4,    0.1,  999.0,    0.5,    0.5,    0.0,    0.1,  999.0,  999.0,   -0.2,  999.0,  999.0,  999.0,  999.0,  999.0,  999.0,  999.0,  999.0,  999.0,  999.0,  999.0,  999.0,  999.0,  999.0,  999.0,  999.0,  999.0,  999.0,  999.0,  999.0,  999.0,  999.0,  999.0,  999.0,  999.0,  999.0,  999.0,  999.0,  999.0,  999.0,  999.0,  999.0,  999.0,  999.0,  999.0,  999.0,  999.0,  999.0,  999.0,  999.0,  999.0,  999.0,  999.0,  999.0,  999.0,  999.0,  999.0,  999.0,  999.0,  999.0,  999.0,  999.0,  999.0,  999.0,  999.0,  999.0,  999.0,  999.0,  999.0,  999.0,  999.0,  999.0,  999.0,  999.0,  999.0,  999.0
2011/03/21 14:40,    0.3,    0.6,    0.0,   -0.0,   -0.7,  999.0,  999.0,   -0.6,   -0.1,    0.4,    0.8,    0.2,    0.1,    0.3,    0.3,    1.1,    1.2,    1.4,    1.9,    1.8,    1.0,    0.4,    0.5,    0.4,  999.0,    0.4,    0.4,    0.2,    0.0,   -0.0,  999.0,   -0.3,  999.0,  999.0,  999.0,  999.0,  999.0,  999.0,  999.0,  999.0,  999.0,  999.0,  999.0,  999.0,  999.0,  999.0,  999.0,  999.0,  999.0,  999.0,  999.0,  999.0,  999.0,  999.0,  999.0,  999.0,  999.0,  999.0,  999.0,  999.0,  999.0,  999.0,  999.0,  999.0,  999.0,  999.0,  999.0,  999.0,  999.0,  999.0,  999.0,  999.0,  999.0,  999.0,  999.0,  999.0,  999.0,  999.0,  999.0,  999.0,  999.0,  999.0,  999.0,  999.0,  999.0,  999.0,  999.0,  999.0,  999.0,  999.0,  999.0,  999.0,  999.0,  999.0,  999.0,  999.0,  999.0,  999.0
2011/03/21 14:50,    0.3,    0.2,    0.0,   -0.1,   -0.4,   -0.3,   -0.1,   -0.2,   -0.1,    0.0,    0.6,    0.4,    0.3,    0.5,    0.6,    0.8,    1.0,    1.6,    1.7,    1.6,    1.2,    0.4,  999.0,    0.7,    0.4,    0.7,    0.2,    0.2,   -0.0,   -0.0,  999.0,   -0.3,  999.0,  999.0,  999.0,  999.0,  999.0,  999.0,  999.0,  999.0,  999.0,  999.0,  999.0,  999.0,  999.0,  999.0,  999.0,  999.0,  999.0,  999.0,  999.0,  999.0,  999.0,  999.0,  999.0,  999.0,  999.0,  999.0,  999.0,  999.0,  999.0,  999.0,  999.0,  999.0,  999.0,  999.0,  999.0,  999.0,  999.0,  999.0,  999.0,  999.0,  999.0,  999.0,  999.0,  999.0,  999.0,  999.0,  999.0,  999.0,  999.0,  999.0,  999.0,  999.0,  999.0,  999.0,  999.0,  999.0,  999.0,  999.0,  999.0,  999.0,  999.0,  999.0,  999.0,  999.0,  999.0,  999.0
2011/03/21 15:00,    0.5,    0.2,  999.0,   -0.0,   -0.3,   -0.4,    0.0,   -0.2,   -0.0,    0.5,    2.3,    2.5,  999.0,  999.0,  999.0,  999.0,    2.5,    1.7,    2.0,    2.1,    1.8,    1.6,    1.4,  999.0,  999.0,  999.0,  999.0,    1.1,    0.4,    0.8,    0.3,   -0.1,  999.0,  999.0,  999.0,  999.0,  999.0,  999.0,  999.0,  999.0,  999.0,  999.0,  999.0,  999.0,  999.0,  999.0,  999.0,  999.0,  999.0,  999.0,  999.0,  999.0,  999.0,  999.0,  999.0,  999.0,  999.0,  999.0,  999.0,  999.0,  999.0,  999.0,  999.0,  999.0,  999.0,  999.0,  999.0,  999.0,  999.0,  999.0,  999.0,  999.0,  999.0,  999.0,  999.0,  999.0,  999.0,  999.0,  999.0,  999.0,  999.0,  999.0,  999.0,  999.0,  999.0,  999.0,  999.0,  999.0,  999.0,  999.0,  999.0,  999.0,  999.0,  999.0,  999.0,  999.0,  999.0,  999.0
2011/03/21 15:10,    0.4,    0.5,    0.1,    0.0,   -0.6,  999.0,   -0.0,   -0.1,    0.1,    0.7,  999.0,    1.6,    2.1,    0.6,    0.8,  999.0,    1.7,    1.5,    1.3,    1.8,    1.8,    1.0,    1.1,  999.0,  999.0,  999.0,    0.6,    0.8,    0.3,    0.4,    0.3,  999.0,   -0.3,    0.2,   -0.4,   -0.9,   -1.0,  999.0,  999.0,  999.0,  999.0,  999.0,  999.0,  999.0,  999.0,  999.0,  999.0,  999.0,  999.0,  999.0,  999.0,  999.0,  999.0,  999.0,  999.0,  999.0,  999.0,  999.0,  999.0,  999.0,  999.0,  999.0,  999.0,  999.0,  999.0,  999.0,  999.0,  999.0,  999.0,  999.0,  999.0,  999.0,  999.0,  999.0,  999.0,  999.0,  999.0,  999.0,  999.0,  999.0,  999.0,  999.0,  999.0,  999.0,  999.0,  999.0,  999.0,  999.0,  999.0,  999.0,  999.0,  999.0,  999.0,  999.0,  999.0,  999.0,  999.0,  999.0
2011/03/21 15:20,    0.4,    0.7,    0.1,   -0.1,   -0.8,   -0.4,   -0.1,  999.0,    0.0,    0.5,    0.5,    1.2,    1.3,    2.4,    0.2,  999.0,  999.0,    1.5,    1.5,    1.9,    1.9,    1.7,    1.2,    1.6,  999.0,    1.1,    0.8,    0.9,    0.3,   -0.0,  999.0,   -0.4,  999.0,  999.0,  999.0,   -0.9,   -1.0,  999.0,  999.0,  999.0,  999.0,  999.0,  999.0,  999.0,  999.0,  999.0,  999.0,  999.0,  999.0,  999.0,  999.0,  999.0,  999.0,  999.0,  999.0,  999.0,  999.0,  999.0,  999.0,  999.0,  999.0,  999.0,  999.0,  999.0,  999.0,  999.0,  999.0,  999.0,  999.0,  999.0,  999.0,  999.0,  999.0,  999.0,  999.0,  999.0,  999.0,  999.0,  999.0,  999.0,  999.0,  999.0,  999.0,  999.0,  999.0,  999.0,  999.0,  999.0,  999.0,  999.0,  999.0,  999.0,  999.0,  999.0,  999.0,  999.0,  999.0,  999.0
2011/03/21 15:30,    0.2,    0.4,    0.1,   -0.1,   -0.6,   -1.0,   -0.5,   -1.3,   -0.1,    0.3,    0.5,    0.3,    0.4,    0.4,    0.0,    0.4,    0.3,    0.6,    0.5,    1.0,    0.4,    1.0,    0.4,    0.7,    1.1,    1.6,    1.2,    1.4,    0.3,  999.0,    0.1,    0.1,  999.0,  999.0,  999.0,  999.0,  999.0,  999.0,  999.0,  999.0,  999.0,  999.0,  999.0,  999.0,  999.0,  999.0,  999.0,  999.0,  999.0,  999.0,  999.0,  999.0,  999.0,  999.0,  999.0,  999.0,  999.0,  999.0,  999.0,  999.0,  999.0,  999.0,  999.0,  999.0,  999.0,  999.0,  999.0,  999.0,  999.0,  999.0,  999.0,  999.0,  999.0,  999.0,  999.0,  999.0,  999.0,  999.0,  999.0,  999.0,  999.0,  999.0,  999.0,  999.0,  999.0,  999.0,  999.0,  999.0,  999.0,  999.0,  999.0,  999.0,  999.0,  999.0,  999.0,  999.0,  999.0,  999.0
2011/03/21 15:40,    0.3,    0.2,    0.0,    0.0,   -0.3,   -1.1,  999.0,  999.0,   -0.4,    0.7,    0.9,    0.4,    0.2,    0.0,   -0.1,  999.0,  999.0,  999.0,    0.1,   -0.1,    0.1,    0.1,   -0.5,    0.0,    0.7,  999.0,    0.7,    0.3,   -0.0,   -0.5,  999.0,   -0.1,   -0.7,   -0.4,   -1.4,  999.0,  999.0,  999.0,  999.0,  999.0,  999.0,  999.0,  999.0,  999.0,  999.0,  999.0,  999.0,  999.0,  999.0,  999.0,  999.0,  999.0,  999.0,  999.0,  999.0,  999.0,  999.0,  999.0,  999.0,  999.0,  999.0,  999.0,  999.0,  999.0,  999.0,  999.0,  999.0,  999.0,  999.0,  999.0,  999.0,  999.0,  999.0,  999.0,  999.0,  999.0,  999.0,  999.0,  999.0,  999.0,  999.0,  999.0,  999.0,  999.0,  999.0,  999.0,  999.0,  999.0,  999.0,  999.0,  999.0,  999.0,  999.0,  999.0,  999.0,  999.0,  999.0,  999.0
2011/03/21 15:50,    0.2,    0.5,    0.3,    0.3,    0.8,    0.7,    0.1,    0.2,  999.0,  999.0,  999.0,  999.0,  999.0,  999.0,    0.7,  999.0,  999.0,  999.0,   -0.1,    0.0,    0.1,   -0.1,  999.0,  999.0,    0.9,  999.0,    0.2,    0.1,    0.1,  999.0,   -0.2,  999.0,  999.0,  999.0,  999.0,  999.0,  999.0,  999.0,  999.0,  999.0,  999.0,  999.0,  999.0,  999.0,  999.0,  999.0,  999.0,  999.0,  999.0,  999.0,  999.0,  999.0,  999.0,  999.0,  999.0,  999.0,  999.0,  999.0,  999.0,  999.0,  999.0,  999.0,  999.0,  999.0,  999.0,  999.0,  999.0,  999.0,  999.0,  999.0,  999.0,  999.0,  999.0,  999.0,  999.0,  999.0,  999.0,  999.0,  999.0,  999.0,  999.0,  999.0,  999.0,  999.0,  999.0,  999.0,  999.0,  999.0,  999.0,  999.0,  999.0,  999.0,  999.0,  999.0,  999.0,  999.0,  999.0,  999.0
2011/03/21 16:00,   -0.1,   -0.6,   -0.4,   -0.6,   -0.4,    0.1,   -0.3,   -0.4,   -0.8,    0.4,    1.0,    1.1,    0.9,    1.3,    0.8,    0.3,   -0.1,  999.0,    0.6,    0.5,    0.4,  999.0,  999.0,  999.0,  999.0,  999.0,    0.2,    0.1,    0.0,   -0.0,  999.0,  999.0,    0.2,  999.0,  999.0,  999.0,  999.0,  999.0,  999.0,  999.0,  999.0,  999.0,  999.0,  999.0,  999.0,  999.0,  999.0,  999.0,  999.0,  999.0,  999.0,  999.0,  999.0,  999.0,  999.0,  999.0,  999.0,  999.0,  999.0,  999.0,  999.0,  999.0,  999.0,  999.0,  999.0,  999.0,  999.0,  999.0,  999.0,  999.0,  999.0,  999.0,  999.0,  999.0,  999.0,  999.0,  999.0,  999.0,  999.0,  999.0,  999.0,  999.0,  999.0,  999.0,  999.0,  999.0,  999.0,  999.0,  999.0,  999.0,  999.0,  999.0,  999.0,  999.0,  999.0,  999.0,  999.0,  999.0
2011/03/21 16:10,   -0.3,   -0.3,   -0.3,   -0.4,   -0.4,   -0.2,   -0.2,   -0.2,   -0.9,   -0.4,   -0.4,    0.4,    0.6,    0.6,    0.2,    0.4,    0.2,    0.2,   -0.0,    0.7,    0.8,    0.6,    0.4,  999.0,  999.0,  999.0,    0.1,    0.2,    0.0,    0.1,    0.1,    0.7,    1.0,  999.0,  999.0,  999.0,  999.0,  999.0,  999.0,  999.0,  999.0,  999.0,  999.0,  999.0,  999.0,  999.0,  999.0,  999.0,  999.0,  999.0,  999.0,  999.0,  999.0,  999.0,  999.0,  999.0,  999.0,  999.0,  999.0,  999.0,  999.0,  999.0,  999.0,  999.0,  999.0,  999.0,  999.0,  999.0,  999.0,  999.0,  999.0,  999.0,  999.0,  999.0,  999.0,  999.0,  999.0,  999.0,  999.0,  999.0,  999.0,  999.0,  999.0,  999.0,  999.0,  999.0,  999.0,  999.0,  999.0,  999.0,  999.0,  999.0,  999.0,  999.0,  999.0,  999.0,  999.0,  999.0
2011/03/21 16:20,   -0.1,   -0.2,   -0.2,   -1.2,   -0.5,   -0.1,    0.0,    0.3,    0.1,    0.3,    1.1,    1.3,    0.7,    0.8,    1.3,    0.6,    1.7,    1.1,    2.3,    1.7,    1.3,    0.9,  999.0,    0.8,    1.0,  999.0,   -0.1,   -0.0,    0.1,  999.0,  999.0,    0.6,    0.9,    0.7,    1.1,    1.4,  999.0,  999.0,    1.1,  999.0,  999.0,  999.0,  999.0,  999.0,  999.0,  999.0,  999.0,  999.0,  999.0,  999.0,  999.0,  999.0,  999.0,  999.0,  999.0,  999.0,  999.0,  999.0,  999.0,  999.0,  999.0,  999.0,  999.0,  999.0,  999.0,  999.0,  999.0,  999.0,  999.0,  999.0,  999.0,  999.0,  999.0,  999.0,  999.0,  999.0,  999.0,  999.0,  999.0,  999.0,  999.0,  999.0,  999.0,  999.0,  999.0,  999.0,  999.0,  999.0,  999.0,  999.0,  999.0,  999.0,  999.0,  999.0,  999.0,  999.0,  999.0,  999.0
2011/03/21 16:30,   -2.2,   -2.2,   -3.4,   -3.5,   -4.3,   -2.8,   -0.9,   -0.7,   -1.6,   -1.0,   -0.9,   -1.4,   -2.3,   -2.5,   -0.4,   -0.5,    0.6,   -0.6,   -1.4,   -1.9,  999.0,  999.0,  999.0,   -0.8,   -0.5,    0.5,   -0.8,    0.2,   -1.1,  999.0,  999.0,  999.0,  999.0,  999.0,  999.0,    3.7,  999.0,    2.7,    1.5,    2.4,    2.1,    0.2,    0.4,   -0.7,   -0.3,    0.1,   -1.1,   -0.9,  999.0,  999.0,  999.0,  999.0,  999.0,  999.0,  999.0,  999.0,  999.0,  999.0,  999.0,  999.0,  999.0,  999.0,  999.0,  999.0,  999.0,  999.0,  999.0,  999.0,  999.0,  999.0,  999.0,  999.0,  999.0,  999.0,  999.0,  999.0,  999.0,  999.0,  999.0,  999.0,  999.0,  999.0,  999.0,  999.0,  999.0,  999.0,  999.0,  999.0,  999.0,  999.0,  999.0,  999.0,  999.0,  999.0,  999.0,  999.0,  999.0,  999.0
2011/03/21 16:40,  999.0,   -5.4,  999.0,  999.0,   -9.4,    5.4,  999.0,    2.8,   -4.4,   -1.2,    0.6,   -0.1,  999.0,  999.0,  999.0,    0.1,  999.0,  999.0,   -2.9,    2.9,  999.0,    0.7,    1.7,    2.1,   -0.3,  999.0,  999.0,    1.8,  999.0,  999.0,  999.0,    0.9,   -5.1,   -5.1,    2.1,    1.3,   -0.9,    2.4,    0.4,  999.0,  999.0,  999.0,  999.0,  999.0,  999.0,  999.0,  999.0,  999.0,  999.0,  999.0,  999.0,  999.0,  999.0,  999.0,  999.0,  999.0,  999.0,  999.0,  999.0,  999.0,  999.0,  999.0,  999.0,  999.0,  999.0,  999.0,  999.0,  999.0,  999.0,  999.0,  999.0,  999.0,  999.0,  999.0,  999.0,  999.0,  999.0,  999.0,  999.0,  999.0,  999.0,  999.0,  999.0,  999.0,  999.0,  999.0,  999.0,  999.0,  999.0,  999.0,  999.0,  999.0,  999.0,  999.0,  999.0,  999.0,  999.0,  999.0
2011/03/21 16:50,   -4.7,  999.0,   -1.2,   -1.6,   -1.8,   -1.7,   -3.8,   -3.8,   -8.7,  -10.8,   -5.2,   -2.3,   -4.7,   -0.6,    0.7,   -1.0,   -1.4,   -1.1,   -0.7,   -1.4,   -1.0,   -1.4,    0.0,   -1.9,   -0.4,    2.3,    4.6,    0.8,    3.7,    2.9,    3.4,  999.0,    2.2,    2.1,  999.0,  999.0,  999.0,  999.0,  999.0,  999.0,  999.0,  999.0,  999.0,  999.0,  999.0,  999.0,  999.0,  999.0,  999.0,  999.0,  999.0,  999.0,  999.0,  999.0,  999.0,  999.0,  999.0,  999.0,  999.0,  999.0,  999.0,  999.0,  999.0,  999.0,  999.0,  999.0,  999.0,  999.0,  999.0,  999.0,  999.0,  999.0,  999.0,  999.0,  999.0,  999.0,  999.0,  999.0,  999.0,  999.0,  999.0,  999.0,  999.0,  999.0,  999.0,  999.0,  999.0,  999.0,  999.0,  999.0,  999.0,  999.0,  999.0,  999.0,  999.0,  999.0,  999.0,  999.0
2011/03/21 17:00,   -0.1,    0.4,   -0.1,   -0.7,   -1.1,   -0.3,   -0.6,   -0.7,   -0.6,    0.6,    0.4,    0.8,    0.4,    0.1,   -0.1,   -0.6,   -0.8,   -1.3,   -0.5,    0.1,    0.4,   -0.2,   -0.9,   -0.5,   -0.6,  999.0,    0.3,    0.2,   -0.1,    0.4,    0.8,    0.0,    0.0,    2.0,  999.0,  999.0,  999.0,  999.0,  999.0,  999.0,  999.0,  999.0,  999.0,  999.0,  999.0,  999.0,  999.0,  999.0,  999.0,  999.0,  999.0,  999.0,  999.0,  999.0,  999.0,  999.0,  999.0,  999.0,  999.0,  999.0,  999.0,  999.0,  999.0,  999.0,  999.0,  999.0,  999.0,  999.0,  999.0,  999.0,  999.0,  999.0,  999.0,  999.0,  999.0,  999.0,  999.0,  999.0,  999.0,  999.0,  999.0,  999.0,  999.0,  999.0,  999.0,  999.0,  999.0,  999.0,  999.0,  999.0,  999.0,  999.0,  999.0,  999.0,  999.0,  999.0,  999.0,  999.0
2011/03/21 17:10,   -0.5,   -0.2,   -0.0,   -0.2,   -0.6,    0.1,   -0.0,    0.1,    0.2,   -0.0,   -0.4,   -0.3,   -0.7,   -0.6,   -0.6,    0.2,    0.2,    0.1,   -0.7,   -0.5,   -0.3,   -1.2,   -0.8,   -1.3,   -1.9,   -2.3,  999.0,   -0.4,   -0.9,   -1.7,   -1.2,   -1.4,   -1.2,  999.0,  999.0,  999.0,  999.0,  999.0,  999.0,  999.0,  999.0,  999.0,  999.0,  999.0,  999.0,  999.0,  999.0,  999.0,  999.0,  999.0,  999.0,  999.0,  999.0,  999.0,  999.0,  999.0,  999.0,  999.0,  999.0,  999.0,  999.0,  999.0,  999.0,  999.0,  999.0,  999.0,  999.0,  999.0,  999.0,  999.0,  999.0,  999.0,  999.0,  999.0,  999.0,  999.0,  999.0,  999.0,  999.0,  999.0,  999.0,  999.0,  999.0,  999.0,  999.0,  999.0,  999.0,  999.0,  999.0,  999.0,  999.0,  999.0,  999.0,  999.0,  999.0,  999.0,  999.0,  999.0
2011/03/21 17:20,   -1.3,   -1.2,   -0.4,   -0.8,   -0.7,   -0.3,   -0.2,   -0.5,   -0.5,   -0.2,    0.1,   -0.1,   -0.1,   -0.1,   -0.2,   -0.1,   -0.1,   -0.5,   -1.3,   -1.6,   -1.3,   -1.1,   -1.7,   -1.3,   -1.4,   -1.7,  999.0,  999.0,   -1.0,   -1.5,   -1.5,  999.0,    0.3,   -0.2,  999.0,   -0.1,  999.0,  999.0,  999.0,  999.0,  999.0,  999.0,  999.0,  999.0,  999.0,  999.0,  999.0,  999.0,  999.0,  999.0,  999.0,  999.0,  999.0,  999.0,  999.0,  999.0,  999.0,  999.0,  999.0,  999.0,  999.0,  999.0,  999.0,  999.0,  999.0,  999.0,  999.0,  999.0,  999.0,  999.0,  999.0,  999.0,  999.0,  999.0,  999.0,  999.0,  999.0,  999.0,  999.0,  999.0,  999.0,  999.0,  999.0,  999.0,  999.0,  999.0,  999.0,  999.0,  999.0,  999.0,  999.0,  999.0,  999.0,  999.0,  999.0,  999.0,  999.0,  999.0
2011/03/21 17:30,   -2.0,   -1.0,   -0.4,   -1.8,   -1.4,   -0.4,   -0.4,   -0.3,   -0.4,    0.0,    0.2,    0.4,    0.4,    0.4,    0.3,    0.0,   -0.4,   -0.8,   -1.0,   -0.9,    0.1,    0.6,   -0.3,   -0.4,   -1.0,   -1.6,   -1.2,   -0.5,   -0.7,   -0.6,   -0.9,    0.2,  999.0,    1.1,  999.0,  999.0,    1.2,  999.0,  999.0,  999.0,  999.0,  999.0,  999.0,  999.0,  999.0,  999.0,  999.0,  999.0,  999.0,  999.0,  999.0,  999.0,  999.0,  999.0,  999.0,  999.0,  999.0,  999.0,  999.0,  999.0,  999.0,  999.0,  999.0,  999.0,  999.0,  999.0,  999.0,  999.0,  999.0,  999.0,  999.0,  999.0,  999.0,  999.0,  999.0,  999.0,  999.0,  999.0,  999.0,  999.0,  999.0,  999.0,  999.0,  999.0,  999.0,  999.0,  999.0,  999.0,  999.0,  999.0,  999.0,  999.0,  999.0,  999.0,  999.0,  999.0,  999.0,  999.0
2011/03/21 17:40,   -0.7,   -1.1,   -0.3,   -0.4,   -0.4,    0.1,    0.0,   -0.2,   -0.2,   -0.1,    0.1,    0.4,    0.1,    0.2,    0.1,    0.5,    0.8,    0.6,   -0.0,   -0.2,    0.5,    0.5,    0.4,   -0.1,   -1.0,   -0.7,  999.0,  999.0,   -0.5,   -0.4,    0.1,    0.7,    1.4,    1.4,  999.0,  999.0,  999.0,  999.0,  999.0,  999.0,  999.0,  999.0,  999.0,  999.0,  999.0,  999.0,  999.0,  999.0,  999.0,  999.0,  999.0,  999.0,  999.0,  999.0,  999.0,  999.0,  999.0,  999.0,  999.0,  999.0,  999.0,  999.0,  999.0,  999.0,  999.0,  999.0,  999.0,  999.0,  999.0,  999.0,  999.0,  999.0,  999.0,  999.0,    3.6,  999.0,  999.0,  999.0,  999.0,  999.0,  999.0,  999.0,  999.0,  999.0,  999.0,  999.0,  999.0,  999.0,  999.0,  999.0,  999.0,  999.0,  999.0,  999.0,  999.0,  999.0,  999.0,  999.0
2011/03/21 17:50,   -0.3,   -0.9,   -0.1,   -0.3,   -0.2,    0.0,    0.0,    0.3,    0.4,    0.3,    0.3,    1.0,    1.4,    1.2,    0.7,    0.5,    0.2,    0.2,    0.4,    0.6,    0.4,    0.2,   -0.5,   -0.8,   -1.2,   -1.5,   -2.0,   -1.4,   -1.3,   -1.0,   -0.5,    0.4,    0.9,    0.5,  999.0,   -0.6,   -0.5,   -0.5,   -1.1,   -0.8,   -0.5,  999.0,  999.0,  999.0,  999.0,  999.0,  999.0,  999.0,  999.0,  999.0,  999.0,  999.0,  999.0,  999.0,  999.0,  999.0,  999.0,  999.0,  999.0,  999.0,  999.0,    2.9,    2.6,    3.2,    3.9,    4.1,    4.1,    3.7,    3.3,    3.2,    2.6,    2.0,    2.3,    2.4,    2.7,    2.8,    2.5,    2.8,  999.0,  999.0,  999.0,  999.0,  999.0,  999.0,  999.0,  999.0,  999.0,  999.0,  999.0,  999.0,  999.0,  999.0,  999.0,  999.0,  999.0,  999.0,  999.0,  999.0
2011/03/21 18:00,   -0.5,   -0.8,   -0.2,   -0.5,   -0.5,   -0.1,    0.0,    0.4,    0.7,    0.9,    1.1,    1.5,    1.2,    0.9,    1.1,    0.9,    1.2,    1.6,    1.3,    1.2,    1.2,    1.0,    0.8,    0.3,   -0.7,   -1.0,   -0.6,   -0.2,   -0.1,    0.6,  999.0,    0.9,    0.3,    0.7,    0.9,    0.4,   -0.5,   -0.0,   -0.8,   -0.4,  999.0,  999.0,  999.0,  999.0,  999.0,  999.0,  999.0,  999.0,  999.0,  999.0,  999.0,  999.0,  999.0,  999.0,  999.0,    3.0,    3.6,    3.9,    4.7,    4.3,    3.6,    3.2,    2.8,    3.4,    4.4,    4.4,    4.1,    3.7,    3.5,    3.3,    3.0,    2.4,    2.1,    2.3,    2.5,  999.0,  999.0,  999.0,  999.0,  999.0,  999.0,  999.0,  999.0,  999.0,  999.0,  999.0,  999.0,  999.0,  999.0,  999.0,  999.0,  999.0,  999.0,  999.0,  999.0,  999.0,  999.0,  999.0
2011/03/21 18:10,   -0.7,   -0.6,   -0.3,   -0.7,   -0.3,    0.2,    0.2,    0.6,    0.3,    0.6,    0.8,    1.2,    0.9,    0.7,    0.8,    0.5,    0.7,    0.7,    0.7,    1.1,    1.4,    1.3,    0.9,    0.7,    0.1,   -0.4,   -0.2,    0.2,    0.4,    0.1,  999.0,    0.0,   -0.2,   -0.1,    0.0,    0.1,  999.0,  999.0,  999.0,  999.0,  999.0,  999.0,  999.0,  999.0,  999.0,  999.0,  999.0,  999.0,  999.0,  999.0,  999.0,  999.0,  999.0,    3.2,    3.9,    4.6,    4.2,    4.5,    5.0,    4.7,    4.0,    3.5,    3.5,    3.8,    4.2,    4.0,    3.8,    3.8,    3.5,    3.0,    2.6,    2.2,    1.9,    2.0,    2.2,  999.0,  999.0,  999.0,  999.0,  999.0,  999.0,  999.0,  999.0,  999.0,  999.0,  999.0,  999.0,  999.0,  999.0,  999.0,  999.0,  999.0,  999.0,  999.0,  999.0,  999.0,  999.0,  999.0
2011/03/21 18:20,   -1.1,   -0.7,   -0.4,   -0.5,    0.5,    1.2,    1.0,    1.2,    1.0,    0.2,    0.1,    0.6,    0.3,    0.5,    0.8,  999.0,    0.7,  999.0,    1.1,    0.8,    1.4,    1.1,    1.0,    0.7,    0.1,   -0.5,    0.0,    0.2,   -0.8,  999.0,   -0.6,  999.0,  999.0,  999.0,  999.0,  999.0,  999.0,  999.0,  999.0,  999.0,  999.0,  999.0,  999.0,  999.0,  999.0,  999.0,  999.0,  999.0,  999.0,    2.6,    2.9,    2.7,    2.6,    3.0,    4.0,    4.9,    4.9,    4.7,    5.2,    5.0,    4.3,    3.8,    4.3,    4.1,    4.0,    4.0,    4.2,    4.3,    3.9,    3.2,    2.8,    2.4,    2.2,    2.5,    3.3,  999.0,  999.0,  999.0,  999.0,  999.0,  999.0,  999.0,  999.0,  999.0,  999.0,  999.0,  999.0,  999.0,  999.0,  999.0,  999.0,  999.0,  999.0,  999.0,  999.0,  999.0,  999.0,  999.0
2011/03/21 18:30,   -1.0,   -0.8,   -0.2,   -0.6,   -0.2,   -0.0,   -0.1,   -0.3,   -0.2,   -0.4,   -0.1,    0.5,    0.8,    1.1,  999.0,  999.0,    1.7,    1.8,    2.1,    2.1,    2.0,    1.1,    0.8,    1.1,    0.5,    0.0,   -0.1,   -0.2,   -0.3,   -0.1,  999.0,    0.2,   -0.1,  999.0,  999.0,  999.0,  999.0,  999.0,  999.0,  999.0,  999.0,  999.0,  999.0,  999.0,  999.0,  999.0,    2.2,    2.6,    3.0,    2.8,    2.5,    2.1,    2.3,    2.8,    3.6,    4.4,    4.7,    4.8,    5.0,    5.2,    5.3,    4.7,    4.1,    3.8,    3.9,    4.0,    4.4,    4.6,    4.5,    3.8,    3.4,    3.2,    3.7,    3.7,    4.1,  999.0,  999.0,  999.0,  999.0,  999.0,  999.0,  999.0,  999.0,  999.0,  999.0,  999.0,  999.0,  999.0,  999.0,  999.0,  999.0,  999.0,  999.0,  999.0,  999.0,  999.0,  999.0,  999.0
2011/03/21 18:40,   -0.7,  999.0,   -0.4,   -0.5,    0.1,    0.2,    0.1,    0.0,   -0.5,   -0.5,   -0.1,    0.2,    0.8,    1.9,    2.1,    2.3,    2.1,    2.4,    3.1,    3.3,    3.3,  999.0,    1.2,    1.4,    0.7,   -0.1,   -0.4,   -0.6,   -0.4,   -0.2,  999.0,  999.0,  999.0,  999.0,  999.0,  999.0,  999.0,  999.0,  999.0,  999.0,  999.0,  999.0,  999.0,  999.0,  999.0,  999.0,  999.0,    1.4,    1.2,    1.2,    1.0,    1.2,    1.4,    1.8,    2.8,    3.4,    3.9,    4.3,    5.1,    5.5,    5.4,    4.4,    3.6,    3.6,    3.6,    3.7,    3.9,    4.5,    4.7,    4.3,    4.1,    4.1,    3.8,  999.0,  999.0,  999.0,  999.0,  999.0,  999.0,  999.0,  999.0,  999.0,  999.0,  999.0,  999.0,  999.0,  999.0,  999.0,  999.0,  999.0,  999.0,  999.0,  999.0,  999.0,  999.0,  999.0,  999.0,  999.0
2011/03/21 18:50,  999.0,   -0.5,   -0.5,   -0.4,    0.4,    0.2,    0.1,    0.1,   -0.2,   -0.4,   -0.2,    0.2,    0.9,    1.3,    0.4,   -2.7,    0.9,    1.1,    0.7,  999.0,  999.0,  999.0,    5.7,    4.6,  999.0,  999.0,   -0.9,   -0.9,   -0.6,   -0.8,   -0.7,   -1.0,   -1.5,   -1.4,   -1.6,  999.0,  999.0,   -2.4,   -3.8,   -3.6,   -2.8,   -2.8,   -1.9,   -1.9,  999.0,    0.1,  999.0,  999.0,    1.1,  999.0,    0.7,  999.0,  999.0,  999.0,  999.0,  999.0,  999.0,  999.0,    5.3,    5.7,    5.7,    5.0,    4.8,    4.3,    3.9,    4.1,    4.1,    4.3,    4.6,    4.5,    4.3,    4.4,  999.0,  999.0,  999.0,  999.0,  999.0,  999.0,    4.5,  999.0,  999.0,  999.0,  999.0,  999.0,  999.0,  999.0,  999.0,  999.0,  999.0,  999.0,  999.0,  999.0,  999.0,  999.0,  999.0,  999.0,  999.0,  999.0
2011/03/21 19:00,   -0.1,    0.9,   -0.4,    0.1,    0.1,    0.3,  999.0,    0.4,   -0.1,   -0.5,   -0.3,    0.1,    0.7,    1.2,    1.4,    1.6,    1.4,    2.2,    2.2,    2.0,    1.9,  999.0,    0.9,    0.6,   -0.1,   -0.8,   -0.3,   -0.3,   -0.3,  999.0,  999.0,   -1.7,  999.0,  999.0,  999.0,  999.0,  999.0,  999.0,  999.0,  999.0,  999.0,  999.0,  999.0,  999.0,  999.0,  999.0,  999.0,  999.0,  999.0,  999.0,  999.0,  999.0,  999.0,  999.0,  999.0,  999.0,  999.0,  999.0,  999.0,  999.0,  999.0,  999.0,  999.0,  999.0,    3.2,  999.0,    4.1,    4.3,    5.0,    5.4,    4.9,    4.9,    5.1,    5.2,  999.0,  999.0,  999.0,  999.0,  999.0,  999.0,  999.0,  999.0,  999.0,  999.0,  999.0,  999.0,  999.0,  999.0,  999.0,  999.0,  999.0,  999.0,  999.0,  999.0,  999.0,  999.0,  999.0,  999.0
2011/03/21 19:10,    0.0,   -1.0,   -0.4,    0.0,    0.2,    0.1,    0.2,    0.5,    0.1,   -0.3,    0.1,    0.2,    1.1,    1.4,    1.4,    1.2,    1.8,    2.8,    2.3,    1.9,    2.3,    2.1,    1.6,    0.7,    0.3,   -0.1,   -0.3,   -0.5,   -0.6,   -0.4,   -0.8,   -1.3,  999.0,  999.0,  999.0,  999.0,  999.0,  999.0,  999.0,  999.0,  999.0,  999.0,  999.0,  999.0,  999.0,  999.0,  999.0,  999.0,  999.0,  999.0,  999.0,  999.0,  999.0,  999.0,  999.0,  999.0,  999.0,  999.0,  999.0,  999.0,  999.0,  999.0,  999.0,  999.0,  999.0,  999.0,  999.0,  999.0,  999.0,  999.0,  999.0,  999.0,  999.0,  999.0,  999.0,  999.0,  999.0,  999.0,  999.0,  999.0,  999.0,  999.0,  999.0,  999.0,  999.0,  999.0,  999.0,  999.0,  999.0,  999.0,  999.0,  999.0,  999.0,  999.0,  999.0,  999.0,  999.0,  999.0
2011/03/21 19:20,  999.0,   -0.6,   -0.1,  999.0,  999.0,    0.5,    0.2,    0.3,   -0.1,   -0.2,    0.3,    1.0,    1.1,    1.4,    1.3,    1.5,    1.6,    1.7,    1.5,    0.6,    0.2,    0.5,   -0.1,   -0.4,   -0.6,   -1.1,   -0.9,   -1.5,   -1.9,   -1.3,   -1.0,   -1.8,  999.0,  999.0,  999.0,  999.0,  999.0,  999.0,  999.0,  999.0,  999.0,  999.0,  999.0,  999.0,  999.0,  999.0,  999.0,  999.0,  999.0,    1.6,    1.8,    2.4,    1.9,  999.0,  999.0,  999.0,  999.0,  999.0,  999.0,  999.0,  999.0,  999.0,  999.0,  999.0,  999.0,  999.0,  999.0,  999.0,  999.0,  999.0,  999.0,  999.0,  999.0,  999.0,  999.0,  999.0,  999.0,  999.0,  999.0,  999.0,  999.0,  999.0,  999.0,  999.0,  999.0,  999.0,  999.0,  999.0,  999.0,  999.0,  999.0,  999.0,  999.0,  999.0,  999.0,  999.0,  999.0,  999.0
2011/03/21 19:30,  999.0,   -0.4,   -0.6,   -0.5,    0.1,   -0.1,    0.1,    0.3,    0.0,    0.1,    0.4,    0.6,    0.8,    1.3,    1.2,    1.2,    1.6,    1.8,    1.3,    0.2,   -0.1,   -0.4,   -0.3,   -1.0,   -0.9,   -0.6,   -0.9,   -1.2,   -1.6,   -2.1,   -1.1,   -1.6,   -1.2,  999.0,   -1.9,  999.0,   -2.5,  999.0,   -2.4,  999.0,  999.0,  999.0,  999.0,  999.0,  999.0,  999.0,  999.0,  999.0,  999.0,    1.2,    1.6,    1.9,    2.3,    3.1,  999.0,  999.0,  999.0,  999.0,  999.0,  999.0,  999.0,  999.0,  999.0,  999.0,  999.0,  999.0,  999.0,  999.0,  999.0,  999.0,  999.0,  999.0,  999.0,  999.0,  999.0,  999.0,  999.0,  999.0,  999.0,  999.0,  999.0,  999.0,  999.0,  999.0,  999.0,  999.0,  999.0,  999.0,  999.0,  999.0,  999.0,  999.0,  999.0,  999.0,  999.0,  999.0,  999.0,  999.0
2011/03/21 19:40,   -0.4,  999.0,   -0.4,   -0.2,    0.3,    0.2,    0.4,    0.7,    0.2,    0.4,    0.9,    1.0,    0.9,    0.8,    0.8,    1.0,    1.0,    0.9,    0.8,   -0.1,   -1.0,   -1.1,  999.0,  999.0,   -1.4,   -0.8,   -0.6,   -1.0,   -1.3,   -2.3,   -2.5,   -1.8,   -1.3,   -1.5,   -1.5,  999.0,  999.0,   -2.1,   -1.7,   -1.7,   -1.2,  999.0,  999.0,  999.0,  999.0,  999.0,  999.0,  999.0,  999.0,  999.0,  999.0,  999.0,  999.0,  999.0,  999.0,  999.0,  999.0,  999.0,  999.0,  999.0,  999.0,  999.0,  999.0,  999.0,  999.0,  999.0,  999.0,  999.0,  999.0,  999.0,  999.0,  999.0,  999.0,  999.0,  999.0,  999.0,  999.0,  999.0,  999.0,  999.0,  999.0,  999.0,  999.0,  999.0,  999.0,  999.0,  999.0,  999.0,  999.0,  999.0,  999.0,  999.0,  999.0,  999.0,  999.0,  999.0,  999.0,  999.0
2011/03/21 19:50,    0.5,   -0.1,   -0.2,   -0.0,    0.4,    0.4,    0.2,    0.4,    0.6,    1.0,    1.5,    1.2,    1.5,    1.8,  999.0,    1.7,    1.5,  999.0,    1.1,    1.0,   -0.1,   -1.0,   -0.8,   -1.0,   -1.0,   -0.5,   -0.4,   -0.9,   -1.2,   -1.4,   -1.8,   -1.4,   -1.2,   -1.0,  999.0,  999.0,  999.0,   -1.7,   -1.9,   -2.0,  999.0,  999.0,  999.0,  999.0,  999.0,  999.0,  999.0,  999.0,  999.0,  999.0,  999.0,  999.0,  999.0,  999.0,  999.0,  999.0,  999.0,  999.0,  999.0,  999.0,  999.0,  999.0,  999.0,  999.0,  999.0,  999.0,  999.0,  999.0,  999.0,  999.0,  999.0,  999.0,  999.0,  999.0,  999.0,  999.0,  999.0,  999.0,  999.0,  999.0,  999.0,  999.0,  999.0,  999.0,  999.0,  999.0,  999.0,  999.0,  999.0,  999.0,  999.0,  999.0,  999.0,  999.0,  999.0,  999.0,  999.0,  999.0
2011/03/21 20:00,  999.0,  999.0,   -0.1,   -0.2,    0.4,    0.2,  999.0,    0.6,    0.9,    1.1,    1.4,    1.8,    2.0,    2.4,  999.0,  999.0,    1.3,    1.5,    1.0,    0.8,   -0.3,   -0.9,   -1.3,   -1.0,   -0.6,   -0.6,   -0.8,   -1.3,   -1.4,   -1.4,   -1.4,   -1.1,   -0.6,  999.0,  999.0,  999.0,  999.0,   -2.1,   -2.4,   -2.8,  999.0,  999.0,  999.0,  999.0,  999.0,  999.0,  999.0,  999.0,    1.4,  999.0,  999.0,    0.9,  999.0,  999.0,    2.3,    3.0,  999.0,  999.0,  999.0,  999.0,  999.0,  999.0,    5.5,  999.0,  999.0,  999.0,  999.0,  999.0,  999.0,  999.0,  999.0,  999.0,  999.0,  999.0,  999.0,  999.0,  999.0,  999.0,  999.0,  999.0,  999.0,  999.0,  999.0,  999.0,  999.0,  999.0,  999.0,  999.0,  999.0,  999.0,  999.0,  999.0,  999.0,  999.0,  999.0,  999.0,  999.0,  999.0
2011/03/21 20:10,  999.0,  999.0,   -0.0,    0.3,    0.4,    0.2,  999.0,    0.9,    1.3,    1.9,    2.3,    2.4,    2.7,    3.1,  999.0,  999.0,    2.2,    1.8,    1.6,    1.0,   -0.1,  999.0,   -1.6,   -0.9,   -0.7,   -0.8,   -0.7,   -1.0,   -1.4,   -1.8,   -1.2,   -0.7,  999.0,  999.0,  999.0,  999.0,  999.0,   -1.8,  999.0,  999.0,   -2.6,   -2.5,   -2.8,  999.0,  999.0,   -0.2,    0.7,    1.1,  999.0,  999.0,    1.4,    1.8,    2.4,    4.0,    3.6,    4.7,    4.7,    4.6,    4.1,    4.8,    5.1,    4.2,    4.3,    5.0,  999.0,  999.0,  999.0,  999.0,  999.0,  999.0,  999.0,  999.0,  999.0,  999.0,  999.0,  999.0,  999.0,  999.0,  999.0,  999.0,  999.0,  999.0,  999.0,  999.0,  999.0,  999.0,  999.0,  999.0,  999.0,  999.0,  999.0,  999.0,  999.0,  999.0,  999.0,  999.0,  999.0,  999.0
2011/03/21 20:20,    0.1,  999.0,    0.2,   -0.9,   -0.8,  999.0,  999.0,    0.9,   -0.2,    0.5,    1.3,   -0.1,  999.0,  999.0,  999.0,  999.0,  999.0,  999.0,  999.0,   -2.7,   -0.8,   -1.1,   -1.7,   -2.1,   -1.7,   -2.2,   -2.2,   -3.6,   -3.0,   -4.5,   -4.9,   -5.3,   -7.0,  999.0,  999.0,  999.0,  999.0,  999.0,   -2.7,   -3.6,   -3.4,   -3.3,   -3.6,   -3.1,   -2.5,   -1.0,    0.3,    0.9,    0.2,    0.4,    0.5,    0.8,    1.1,    1.6,    2.4,    2.9,    2.9,    2.6,    2.6,    1.7,  999.0,  999.0,  999.0,  999.0,  999.0,    3.8,    1.5,  999.0,  999.0,  999.0,  999.0,  999.0,  999.0,  999.0,  999.0,  999.0,  999.0,  999.0,  999.0,  999.0,  999.0,  999.0,  999.0,  999.0,  999.0,  999.0,  999.0,  999.0,  999.0,  999.0,  999.0,  999.0,  999.0,  999.0,  999.0,  999.0,  999.0,  999.0
2011/03/21 20:30,   -4.3,   -3.7,   -2.8,   -3.5,   -4.1,   -4.8,   -5.9,   -5.2,   -4.3,   -2.9,   -2.2,   -2.1,   -2.4,   -2.6,   -2.7,   -4.4,   -4.7,   -3.5,   -3.3,   -4.0,  999.0,   -2.3,   -2.7,   -1.2,   -0.3,  999.0,   -1.4,   -3.2,   -2.3,   -2.9,   -2.3,   -1.5,    0.6,   -0.6,   -0.4,   -0.6,   -1.2,   -3.2,   -2.9,   -2.8,   -3.4,   -3.6,   -2.9,   -1.9,   -1.5,  999.0,    0.5,    0.6,    0.5,    1.0,    1.5,    1.7,    1.9,    2.8,    3.7,    3.9,    3.9,    3.6,    3.3,  999.0,  999.0,  999.0,  999.0,  999.0,  999.0,    2.9,  999.0,  999.0,  999.0,  999.0,  999.0,  999.0,  999.0,  999.0,  999.0,  999.0,  999.0,  999.0,  999.0,  999.0,  999.0,  999.0,  999.0,  999.0,  999.0,  999.0,  999.0,  999.0,  999.0,  999.0,  999.0,  999.0,  999.0,  999.0,  999.0,  999.0,  999.0,  999.0
2011/03/21 20:40,   -1.3,   -1.8,   -1.7,   -1.3,   -2.0,    0.3,    0.0,   -2.3,   -3.8,   -3.2,   -2.1,   -1.4,   -1.2,    1.4,    1.0,   -0.5,   -1.3,   -0.2,  999.0,   -2.6,   -4.3,   -4.9,  999.0,   -1.9,   -2.1,   -2.7,   -3.8,   -4.0,  999.0,   -3.6,   -3.6,   -2.8,   -1.9,   -1.6,   -1.6,   -1.6,   -1.7,   -3.3,   -4.3,   -2.8,   -3.9,   -3.2,   -4.2,   -2.9,  999.0,  999.0,  999.0,  999.0,   -0.5,    0.2,    0.5,    0.8,    1.1,    1.7,    2.2,    2.5,    2.5,    1.8,    1.8,  999.0,  999.0,  999.0,  999.0,  999.0,  999.0,  999.0,  999.0,  999.0,  999.0,  999.0,  999.0,  999.0,  999.0,  999.0,  999.0,  999.0,  999.0,  999.0,  999.0,  999.0,  999.0,  999.0,  999.0,  999.0,  999.0,  999.0,  999.0,  999.0,  999.0,  999.0,  999.0,  999.0,  999.0,  999.0,  999.0,  999.0,  999.0,  999.0
2011/03/21 20:50,    0.1,  999.0,    0.0,    0.5,    1.2,    0.1,    0.1,    1.2,    1.4,    0.6,    1.8,    2.7,    2.9,    3.7,    2.9,    2.5,    1.6,    1.1,  999.0,    0.0,   -1.1,   -1.5,   -1.4,   -1.5,   -1.7,  999.0,  999.0,  999.0,  999.0,  999.0,   -2.5,   -2.7,   -2.4,   -2.1,   -1.9,   -2.0,   -2.3,   -2.3,   -2.4,   -2.5,   -3.2,   -3.4,   -2.8,   -2.2,   -1.6,   -0.5,    0.3,   -0.1,    0.2,    1.2,    1.6,    1.8,    1.9,    2.6,    3.2,    3.7,    3.5,  999.0,  999.0,  999.0,  999.0,  999.0,  999.0,  999.0,  999.0,  999.0,  999.0,  999.0,  999.0,  999.0,  999.0,  999.0,  999.0,  999.0,  999.0,  999.0,  999.0,  999.0,  999.0,  999.0,  999.0,  999.0,  999.0,  999.0,  999.0,  999.0,  999.0,  999.0,  999.0,  999.0,  999.0,  999.0,  999.0,  999.0,  999.0,  999.0,  999.0,  999.0
2011/03/21 21:00,   -0.0,    0.1,    0.3,    0.3,    0.9,    0.2,    0.1,    0.8,    1.6,    2.2,    2.4,    2.8,    2.9,    2.6,    2.3,    1.7,    1.2,    1.5,    0.5,   -0.3,   -0.7,   -1.0,   -0.4,  999.0,  999.0,  999.0,  999.0,  999.0,  999.0,  999.0,   -2.2,   -2.8,   -3.8,   -3.5,   -3.0,   -3.3,   -3.9,   -4.6,   -3.7,   -3.4,   -3.3,   -5.9,  999.0,   -4.2,   -3.3,   -1.8,   -0.2,   -0.6,    0.0,    0.8,    1.2,    2.0,  999.0,    3.3,    4.0,    4.2,    3.9,    4.1,  999.0,  999.0,  999.0,  999.0,  999.0,  999.0,  999.0,  999.0,  999.0,  999.0,  999.0,  999.0,  999.0,  999.0,  999.0,  999.0,  999.0,  999.0,  999.0,  999.0,  999.0,  999.0,  999.0,  999.0,  999.0,  999.0,  999.0,  999.0,  999.0,  999.0,  999.0,  999.0,  999.0,  999.0,  999.0,  999.0,  999.0,  999.0,  999.0,  999.0
2011/03/21 21:10,    0.1,   -0.2,   -0.1,    0.5,    0.7,    0.2,    0.1,    1.0,    1.6,    2.1,    2.8,    3.2,    3.2,    3.1,    2.6,    1.8,    1.2,    0.5,    0.1,   -0.7,   -1.4,   -1.4,   -1.1,   -1.1,  999.0,  999.0,  999.0,   -2.5,  999.0,  999.0,  999.0,   -2.0,  999.0,  999.0,  999.0,  999.0,    0.9,   -2.6,   -2.8,   -2.5,    1.0,    0.8,  999.0,   -1.5,   -1.3,  999.0,  999.0,  999.0,  999.0,  999.0,  999.0,    3.1,  999.0,  999.0,  999.0,    4.1,  999.0,  999.0,  999.0,  999.0,  999.0,  999.0,  999.0,  999.0,  999.0,  999.0,  999.0,  999.0,  999.0,  999.0,  999.0,  999.0,  999.0,  999.0,  999.0,  999.0,  999.0,  999.0,  999.0,  999.0,  999.0,  999.0,  999.0,  999.0,  999.0,  999.0,  999.0,  999.0,  999.0,  999.0,  999.0,  999.0,  999.0,  999.0,  999.0,  999.0,  999.0,  999.0
2011/03/21 21:20,   -0.1,    0.0,    0.1,    1.9,    2.0,    1.7,    1.7,    2.8,    3.5,    4.0,    4.4,    4.6,    4.6,    4.3,    3.8,    3.4,    4.0,    3.3,    1.5,   -0.2,   -0.1,   -0.4,    0.9,    0.5,  999.0,  999.0,   -1.9,   -1.3,  999.0,  999.0,  999.0,  999.0,  999.0,  999.0,  999.0,  999.0,  999.0,  999.0,  999.0,   -1.2,    1.2,    0.9,    1.1,  999.0,    0.9,  999.0,  999.0,   -1.5,  999.0,  999.0,  999.0,  999.0,  999.0,  999.0,  999.0,  999.0,  999.0,  999.0,  999.0,  999.0,  999.0,  999.0,  999.0,  999.0,  999.0,  999.0,  999.0,  999.0,  999.0,  999.0,  999.0,  999.0,  999.0,  999.0,  999.0,  999.0,  999.0,  999.0,  999.0,  999.0,  999.0,  999.0,  999.0,  999.0,  999.0,  999.0,  999.0,  999.0,  999.0,  999.0,  999.0,  999.0,  999.0,  999.0,  999.0,  999.0,  999.0,  999.0
2011/03/21 21:30,   -0.6,   -0.5,    0.4,    0.9,    0.9,    0.9,    0.9,   -0.5,   -1.1,   -2.2,    1.8,   -0.5,  999.0,  999.0,    1.0,   -2.5,  999.0,    1.0,    0.2,    2.1,    2.6,    0.2,    2.4,  999.0,    2.5,    2.7,    3.4,  999.0,    0.5,   -0.5,    1.8,  999.0,    1.6,  999.0,   -0.1,    0.6,  999.0,   -1.0,  999.0,  999.0,  999.0,  999.0,  999.0,  999.0,  999.0,  999.0,  999.0,  999.0,  999.0,  999.0,  999.0,  999.0,  999.0,  999.0,    2.3,  999.0,  999.0,  999.0,  999.0,  999.0,  999.0,  999.0,  999.0,  999.0,  999.0,  999.0,  999.0,  999.0,  999.0,  999.0,  999.0,  999.0,  999.0,  999.0,  999.0,  999.0,  999.0,  999.0,  999.0,  999.0,  999.0,  999.0,  999.0,  999.0,  999.0,  999.0,  999.0,  999.0,  999.0,  999.0,  999.0,  999.0,  999.0,  999.0,  999.0,  999.0,  999.0,  999.0
2011/03/21 21:40,    0.4,   -0.0,    0.5,  999.0,    1.1,    0.9,    1.6,    2.2,    1.8,    1.5,    2.1,    3.0,    2.2,    2.3,    1.8,    1.0,    1.2,    1.1,    0.2,    0.4,    0.2,   -0.8,   -0.9,   -1.7,   -2.3,   -0.8,   -2.0,  999.0,  999.0,  999.0,  999.0,    1.4,  999.0,  999.0,  999.0,  999.0,  999.0,  999.0,  999.0,  999.0,  999.0,  999.0,  999.0,  999.0,  999.0,  999.0,  999.0,  999.0,  999.0,  999.0,  999.0,    1.5,    1.8,    1.9,    1.5,    1.2,  999.0,  999.0,  999.0,  999.0,  999.0,  999.0,  999.0,  999.0,  999.0,  999.0,  999.0,  999.0,  999.0,  999.0,  999.0,  999.0,  999.0,  999.0,  999.0,  999.0,  999.0,  999.0,  999.0,  999.0,  999.0,  999.0,  999.0,  999.0,  999.0,  999.0,  999.0,  999.0,  999.0,  999.0,  999.0,  999.0,  999.0,  999.0,  999.0,  999.0,  999.0,  999.0
2011/03/21 21:50,   -0.0,   -0.1,   -0.0,    0.0,    0.5,    0.5,    1.0,    2.4,    2.4,    2.7,    2.3,    2.8,    2.9,  999.0,    2.4,    2.5,    1.9,    1.9,    0.4,   -0.3,   -1.1,   -1.4,  999.0,   -0.2,    0.2,    1.9,   -1.7,    2.7,    3.5,  999.0,  999.0,  999.0,  999.0,  999.0,  999.0,  999.0,  999.0,  999.0,  999.0,  999.0,    4.7,  999.0,  999.0,  999.0,  999.0,  999.0,   -1.3,    0.9,  999.0,    0.7,    1.2,    1.5,    1.5,  999.0,  999.0,  999.0,  999.0,  999.0,  999.0,  999.0,  999.0,  999.0,  999.0,  999.0,  999.0,  999.0,  999.0,  999.0,  999.0,  999.0,  999.0,  999.0,  999.0,  999.0,  999.0,  999.0,  999.0,  999.0,  999.0,  999.0,  999.0,  999.0,  999.0,  999.0,  999.0,  999.0,  999.0,  999.0,  999.0,  999.0,  999.0,  999.0,  999.0,  999.0,  999.0,  999.0,  999.0,  999.0
2011/03/21 22:00,    0.1,   -0.0,    0.0,    0.1,    0.5,    0.2,    0.4,    1.6,    2.0,    2.7,    2.6,    2.5,    2.6,    1.7,    1.8,    2.3,    2.3,    1.4,    0.2,   -0.1,   -0.7,   -1.0,   -2.1,  999.0,   -2.6,   -2.7,   -2.3,   -2.2,   -1.8,   -2.4,  999.0,   -1.6,   -2.0,  999.0,   -2.6,  999.0,  999.0,  999.0,  999.0,   -2.7,   -2.3,  999.0,  999.0,  999.0,  999.0,  999.0,  999.0,  999.0,  999.0,  999.0,  999.0,  999.0,  999.0,  999.0,  999.0,  999.0,  999.0,  999.0,  999.0,  999.0,  999.0,  999.0,  999.0,  999.0,  999.0,  999.0,  999.0,  999.0,  999.0,  999.0,  999.0,  999.0,  999.0,  999.0,  999.0,  999.0,  999.0,  999.0,  999.0,  999.0,  999.0,  999.0,  999.0,  999.0,  999.0,  999.0,  999.0,  999.0,  999.0,  999.0,  999.0,  999.0,  999.0,  999.0,  999.0,  999.0,  999.0,  999.0
2011/03/21 22:10,    0.1,    0.1,    0.0,    0.2,    1.0,    0.1,  999.0,    0.7,    1.6,    2.4,    2.6,    2.7,    2.9,    1.3,    0.6,    0.9,    1.4,    1.3,    0.1,   -0.2,   -1.1,   -1.4,   -2.3,   -2.4,   -2.3,   -2.5,  999.0,   -2.0,   -2.8,   -2.5,   -2.4,   -1.5,   -2.2,   -2.7,   -3.1,  999.0,   -3.5,  999.0,   -3.1,   -3.0,  999.0,   -1.9,   -1.7,  999.0,  999.0,  999.0,  999.0,  999.0,  999.0,  999.0,  999.0,  999.0,  999.0,  999.0,  999.0,  999.0,  999.0,  999.0,  999.0,  999.0,  999.0,  999.0,  999.0,  999.0,  999.0,  999.0,  999.0,  999.0,  999.0,  999.0,  999.0,  999.0,  999.0,  999.0,  999.0,  999.0,  999.0,  999.0,  999.0,  999.0,  999.0,  999.0,  999.0,  999.0,  999.0,  999.0,  999.0,  999.0,  999.0,  999.0,  999.0,  999.0,  999.0,  999.0,  999.0,  999.0,  999.0,  999.0
2011/03/21 22:20,   -0.1,   -0.0,    0.0,   -0.0,    0.5,    0.1,    0.2,    1.5,    1.8,    2.3,    2.5,    2.8,    1.9,    1.4,    1.2,    0.9,    1.2,    1.3,  999.0,    0.3,   -0.2,  999.0,   -1.2,   -1.7,   -2.0,   -2.1,   -2.3,   -2.2,  999.0,   -2.3,   -2.0,   -1.6,   -2.1,   -2.4,   -2.5,   -2.7,  999.0,   -2.9,  999.0,   -2.0,  999.0,   -1.7,   -1.6,   -1.2,  999.0,  999.0,  999.0,  999.0,  999.0,  999.0,  999.0,  999.0,  999.0,  999.0,  999.0,  999.0,  999.0,  999.0,  999.0,  999.0,  999.0,  999.0,  999.0,  999.0,  999.0,  999.0,  999.0,  999.0,  999.0,  999.0,  999.0,  999.0,  999.0,  999.0,  999.0,  999.0,  999.0,  999.0,  999.0,  999.0,  999.0,  999.0,  999.0,  999.0,  999.0,  999.0,  999.0,  999.0,  999.0,  999.0,  999.0,  999.0,  999.0,  999.0,  999.0,  999.0,  999.0,  999.0
2011/03/21 22:30,    0.1,    0.0,  999.0,    0.2,    0.6,    0.1,    0.2,    1.7,    2.2,    1.7,    2.2,    2.3,    1.2,    0.9,    1.3,    0.8,    1.1,    1.2,    0.4,    0.1,   -0.5,   -1.2,  999.0,   -2.2,   -2.1,   -2.1,   -2.2,   -2.6,   -2.3,   -2.3,   -1.9,   -1.9,  999.0,   -2.2,   -2.5,   -3.1,   -2.9,  999.0,  999.0,  999.0,  999.0,  999.0,   -1.2,   -1.6,   -1.5,  999.0,  999.0,  999.0,  999.0,  999.0,  999.0,  999.0,  999.0,  999.0,  999.0,  999.0,  999.0,  999.0,  999.0,  999.0,  999.0,  999.0,  999.0,  999.0,  999.0,  999.0,  999.0,  999.0,  999.0,  999.0,  999.0,  999.0,  999.0,  999.0,  999.0,  999.0,  999.0,  999.0,  999.0,  999.0,  999.0,  999.0,  999.0,  999.0,  999.0,  999.0,  999.0,  999.0,  999.0,  999.0,  999.0,  999.0,  999.0,  999.0,  999.0,  999.0,  999.0,  999.0
2011/03/21 22:40,    0.0,    0.1,    0.0,    0.2,    0.8,    0.2,    0.2,    1.6,    1.4,    1.0,    2.3,    2.3,    1.2,    1.4,    1.5,    1.1,    1.1,    1.4,    0.5,   -0.2,   -0.4,   -1.6,   -2.1,   -2.8,   -2.8,   -3.0,   -2.4,   -3.0,   -2.9,   -2.8,   -2.2,   -2.2,   -2.5,  999.0,   -2.2,  999.0,  999.0,   -3.6,  999.0,  999.0,  999.0,  999.0,  999.0,   -1.1,   -1.9,   -2.1,  999.0,  999.0,  999.0,  999.0,  999.0,  999.0,  999.0,  999.0,  999.0,  999.0,  999.0,  999.0,  999.0,  999.0,  999.0,  999.0,  999.0,  999.0,  999.0,  999.0,  999.0,  999.0,  999.0,  999.0,  999.0,  999.0,  999.0,  999.0,  999.0,  999.0,  999.0,  999.0,  999.0,  999.0,  999.0,  999.0,  999.0,  999.0,  999.0,  999.0,  999.0,  999.0,  999.0,  999.0,  999.0,  999.0,  999.0,  999.0,  999.0,  999.0,  999.0,  999.0
2011/03/21 22:50,   -0.1,   -0.0,   -0.0,    0.5,    1.0,    0.1,    0.2,    0.7,    0.4,    0.5,    2.1,    1.7,    1.1,    1.6,    1.3,    1.0,    1.6,    1.5,    0.5,    0.1,   -0.3,   -0.9,   -1.6,   -2.4,   -2.3,   -2.2,   -2.2,   -2.8,   -2.7,   -2.8,   -2.0,   -2.1,   -2.2,  999.0,  999.0,  999.0,   -4.0,  999.0,  999.0,  999.0,  999.0,  999.0,  999.0,  999.0,  999.0,  999.0,  999.0,  999.0,  999.0,  999.0,  999.0,  999.0,  999.0,  999.0,  999.0,  999.0,  999.0,  999.0,  999.0,  999.0,  999.0,  999.0,  999.0,  999.0,  999.0,  999.0,  999.0,  999.0,  999.0,  999.0,  999.0,  999.0,  999.0,  999.0,  999.0,  999.0,  999.0,  999.0,  999.0,  999.0,  999.0,  999.0,  999.0,  999.0,  999.0,  999.0,  999.0,  999.0,  999.0,  999.0,  999.0,  999.0,  999.0,  999.0,  999.0,  999.0,  999.0,  999.0
2011/03/21 23:00,    0.1,    0.0,  999.0,    0.1,    0.7,  999.0,  999.0,    0.3,    0.1,    0.5,    1.3,    1.0,    0.5,    0.9,    0.5,    0.5,    1.1,    1.0,    0.1,   -0.2,   -0.3,   -1.0,  999.0,   -2.2,  999.0,   -2.5,   -2.1,   -2.5,   -2.3,  999.0,   -1.9,   -2.4,  999.0,  999.0,   -3.2,   -3.6,  999.0,  999.0,  999.0,  999.0,  999.0,  999.0,  999.0,  999.0,  999.0,  999.0,  999.0,  999.0,  999.0,  999.0,   -1.1,   -1.2,   -1.0,   -1.2,   -0.4,  999.0,  999.0,  999.0,  999.0,  999.0,  999.0,  999.0,  999.0,  999.0,  999.0,  999.0,  999.0,  999.0,  999.0,  999.0,  999.0,  999.0,  999.0,  999.0,  999.0,  999.0,  999.0,  999.0,  999.0,  999.0,  999.0,  999.0,  999.0,  999.0,  999.0,  999.0,  999.0,  999.0,  999.0,  999.0,  999.0,  999.0,  999.0,  999.0,  999.0,  999.0,  999.0,  999.0
2011/03/21 23:10,    0.3,    0.4,    0.2,    0.6,    1.3,  999.0,  999.0,    0.6,    0.3,    0.8,    1.8,    1.6,    0.9,    1.1,    1.1,    0.4,    0.9,    1.0,    0.6,  999.0,   -0.5,   -1.1,   -2.1,   -2.4,   -2.7,   -3.0,   -2.4,   -2.7,   -2.8,  999.0,   -1.9,   -3.0,   -3.3,  999.0,   -4.2,  999.0,  999.0,  999.0,   -3.1,   -3.0,  999.0,  999.0,  999.0,  999.0,  999.0,  999.0,  999.0,  999.0,  999.0,  999.0,  999.0,  999.0,  999.0,  999.0,  999.0,  999.0,  999.0,  999.0,  999.0,  999.0,  999.0,  999.0,  999.0,  999.0,  999.0,  999.0,  999.0,  999.0,  999.0,  999.0,  999.0,  999.0,  999.0,  999.0,  999.0,  999.0,  999.0,  999.0,  999.0,  999.0,  999.0,  999.0,  999.0,  999.0,  999.0,  999.0,  999.0,  999.0,  999.0,  999.0,  999.0,  999.0,  999.0,  999.0,  999.0,  999.0,  999.0,  999.0
2011/03/21 23:20,    0.2,    0.1,    0.2,    0.5,    1.6,    0.1,  999.0,    0.4,    0.3,    1.3,    1.9,    1.8,    1.3,    1.7,    2.0,    1.6,    0.9,    1.7,    1.5,    1.5,    0.1,   -0.1,   -1.0,   -2.1,   -2.6,   -2.9,   -2.8,   -2.5,   -2.5,  999.0,  999.0,   -2.6,   -3.0,   -3.2,   -3.6,  999.0,  999.0,  999.0,  999.0,  999.0,  999.0,  999.0,  999.0,  999.0,  999.0,  999.0,  999.0,  999.0,  999.0,  999.0,  999.0,  999.0,  999.0,  999.0,  999.0,  999.0,  999.0,  999.0,  999.0,  999.0,  999.0,  999.0,  999.0,  999.0,  999.0,  999.0,  999.0,  999.0,  999.0,  999.0,  999.0,  999.0,  999.0,  999.0,  999.0,  999.0,  999.0,  999.0,  999.0,  999.0,  999.0,  999.0,  999.0,  999.0,  999.0,  999.0,  999.0,  999.0,  999.0,  999.0,  999.0,  999.0,  999.0,  999.0,  999.0,  999.0,  999.0,  999.0
2011/03/21 23:30,    0.1,    0.1,    0.3,    0.8,    1.5,    0.2,    0.3,    0.3,    0.3,    0.8,    1.5,    1.2,    1.0,    1.6,    2.0,    2.1,    1.3,    1.3,    1.6,    1.3,    1.0,   -0.4,   -1.0,   -2.3,   -2.8,   -3.4,   -3.0,   -3.0,   -2.9,  999.0,   -3.4,   -3.1,  999.0,   -3.6,   -4.1,   -4.5,  999.0,   -3.8,  999.0,  999.0,  999.0,  999.0,  999.0,  999.0,  999.0,  999.0,  999.0,  999.0,  999.0,  999.0,  999.0,  999.0,  999.0,  999.0,  999.0,  999.0,  999.0,  999.0,  999.0,  999.0,  999.0,  999.0,  999.0,  999.0,  999.0,  999.0,  999.0,  999.0,  999.0,  999.0,  999.0,  999.0,  999.0,  999.0,  999.0,  999.0,  999.0,  999.0,  999.0,  999.0,  999.0,  999.0,  999.0,  999.0,  999.0,  999.0,  999.0,  999.0,  999.0,  999.0,  999.0,  999.0,  999.0,  999.0,  999.0,  999.0,  999.0,  999.0
2011/03/21 23:40,    1.5,    2.1,    1.5,    2.2,    2.0,    0.3,    0.2,    0.8,    0.5,    1.2,    1.7,    1.5,    0.9,    1.1,    1.7,    2.0,    1.5,    0.8,    1.1,    1.0,  999.0,  999.0,   -0.9,   -2.1,   -2.4,   -2.9,   -2.9,  999.0,  999.0,   -2.9,   -3.2,  999.0,  999.0,   -3.0,   -3.6,   -4.1,   -4.0,  999.0,  999.0,  999.0,  999.0,  999.0,  999.0,  999.0,  999.0,  999.0,  999.0,  999.0,  999.0,  999.0,  999.0,  999.0,  999.0,  999.0,  999.0,  999.0,  999.0,  999.0,  999.0,  999.0,  999.0,  999.0,  999.0,  999.0,  999.0,  999.0,  999.0,  999.0,  999.0,  999.0,  999.0,  999.0,  999.0,  999.0,  999.0,  999.0,  999.0,  999.0,  999.0,  999.0,  999.0,  999.0,  999.0,  999.0,  999.0,  999.0,  999.0,  999.0,  999.0,  999.0,  999.0,  999.0,  999.0,  999.0,  999.0,  999.0,  999.0,  999.0
2011/03/21 23:50,    1.2,    1.2,    1.1,    3.0,    2.6,    0.5,    0.3,    1.0,    1.5,    1.5,    1.7,    1.4,    1.3,    2.1,    2.2,    2.2,    1.4,    0.7,    0.7,    0.7,  999.0,  999.0,   -1.4,   -2.3,   -2.4,   -2.8,   -3.2,   -3.5,   -3.0,   -2.8,  999.0,  999.0,  999.0,  999.0,   -2.1,   -2.9,   -3.3,  999.0,  999.0,  999.0,  999.0,  999.0,  999.0,  999.0,  999.0,  999.0,  999.0,  999.0,  999.0,  999.0,  999.0,  999.0,  999.0,  999.0,  999.0,  999.0,  999.0,  999.0,  999.0,  999.0,  999.0,  999.0,  999.0,  999.0,  999.0,  999.0,  999.0,  999.0,  999.0,  999.0,  999.0,  999.0,  999.0,  999.0,  999.0,  999.0,  999.0,  999.0,  999.0,  999.0,  999.0,  999.0,  999.0,  999.0,  999.0,  999.0,  999.0,  999.0,  999.0,  999.0,  999.0,  999.0,  999.0,  999.0,  999.0,  999.0,  999.0,  999.0
